GFSNE_con_3kmhel_000.txt.gz
Helicity
91 99 128 147 171 176 212 252 305 327 312 279 233 165 164 141 109 113 122 97 91 93 118 129 133 124 123 111 102 83 72 74 88 113 89 87 96 138
101 126 141 148 174 175 199 230 259 303 374 228 188 159 133 144 109 103 137 88 71 71 75 87 86 76 88 104 84 37 85 107 83 76 59 41 42 35
120 145 158 158 157 168 187 217 249 262 284 191 161 133 124 100 104 114 105 102 91 56 50 45 53 82 91 98 100 105 91 87 92 84 69 67 79 80
150 163 150 143 145 165 198 208 215 228 252 194 149 118 108 98 125 106 90 98 74 55 26 36 41 31 41 52 55 58 45 59 88 101 91 62 50 66
152 151 147 151 158 164 181 213 215 182 176 172 178 164 168 161 132 67 74 73 99 46 24 19 15 24 16 26 31 66 94 93 93 92 88 94 93 79
155 165 162 161 157 161 171 198 190 178 171 192 194 148 186 152 91 95 84 105 144 131 76 49 28 27 24 21 31 44 57 61 48 31 5 21 29 26
178 178 180 180 154 149 177 187 152 158 180 161 169 163 136 83 74 85 131 149 131 108 96 131 94 113 97 38 24 29 34 33 23 20 42 50 55 18
187 210 230 157 137 110 118 97 93 138 150 142 162 116 73 83 116 134 127 113 -35 73 114 125 129 114 100 85 20 4 14 17 5 21 42 42 40 45
193 209 200 184 144 151 96 42 67 67 103 110 91 94 101 115 96 74 109 147 171 142 131 151 121 130 132 96 41 35 24 10 0 -17 -9 11 44 45
193 183 174 153 133 93 94 110 126 163 85 74 122 125 106 85 82 106 117 93 163 165 122 144 157 144 118 92 118 96 38 2 -4 -7 -15 33 53 53
156 151 133 130 80 27 83 122 94 83 71 66 50 9 13 15 13 -13 -16 -27 47 126 118 118 161 139 129 179 178 84 23 18 0 -16 -13 -19 6 86
154 151 74 72 44 67 100 87 96 59 48 36 10 42 31 64 26 33 51 53 101 164 141 140 170 138 56 153 72 78 62 85 58 50 21 9 -7 -59
160 142 129 47 74 55 59 101 80 -45 -35 13 42 64 83 91 88 91 113 115 146 217 172 115 156 126 91 72 177 141 53 69 123 113 84 75 57 16
137 130 103 67 65 57 63 8 -16 10 63 40 54 68 79 119 132 127 132 153 173 180 177 164 160 102 50 88 95 124 75 184 176 143 154 171 124 76
125 100 76 67 69 70 -17 -13 17 45 29 40 50 87 123 154 159 157 156 162 174 184 187 145 129 124 114 138 203 227 201 170 91 151 145 126 96 58
75 111 80 75 53 -13 56 27 19 21 20 44 72 112 114 111 116 117 152 158 175 179 133 132 115 136 133 150 189 288 267 166 221 200 166 167 122 68
82 92 88 85 41 90 50 52 50 41 53 62 60 84 96 90 116 111 147 143 149 167 149 120 123 166 187 223 229 262 299 255 199 167 157 166 171 168
94 97 34 18 84 63 70 88 73 57 60 61 82 95 114 113 119 129 123 134 136 149 132 145 171 174 141 154 275 375 230 197 182 151 122 130 166 244
94 -52 18 88 93 54 79 82 78 92 73 82 113 141 135 144 104 128 134 131 135 122 126 162 175 163 185 214 264 204 151 161 182 168 160 147 215 341
-2 2 87 92 83 84 117 124 137 143 139 153 158 164 123 105 124 124 120 126 111 74 120 151 159 167 165 186 222 290 205 114 122 163 197 174 198 387
66 85 83 101 117 135 145 144 144 146 104 134 178 206 83 62 92 82 106 50 31 50 76 130 185 145 144 120 148 164 168 127 47 44 100 152 214 367
38 72 100 115 132 144 149 140 145 153 162 170 189 194 174 105 74 74 40 18 10 28 60 95 135 125 102 78 83 100 108 98 121 113 93 80 68 196
70 93 108 139 159 161 153 147 159 178 172 177 199 201 173 130 84 62 7 -15 -15 -3 11 50 76 83 85 69 52 89 115 104 107 105 124 177 118 116

GFSNE_con_3kmhel_003.txt.gz
Helicity
102 95 108 115 125 139 161 180 205 235 208 221 199 167 169 173 147 130 145 96 85 94 102 105 102 113 118 126 147 145 132 124 133 90 70 104 93 96
109 113 122 134 134 137 156 163 188 234 339 236 199 173 168 167 146 127 146 81 92 90 84 72 68 81 100 95 96 96 100 50 51 53 50 77 85 59
118 120 122 128 149 147 134 152 190 229 288 241 214 174 152 130 124 100 100 128 102 38 47 47 73 67 42 53 59 65 31 66 85 96 53 65 43 35
116 128 133 153 140 128 150 171 212 237 262 236 198 191 174 145 112 126 64 63 59 10 9 47 38 30 48 56 47 43 25 -8 15 41 47 48 41 73
124 139 140 137 154 169 182 210 202 189 204 218 226 217 173 153 135 97 59 24 6 -15 24 37 22 39 44 29 18 10 16 38 87 111 110 109 102 71
146 153 153 182 201 195 187 176 195 191 187 202 218 190 188 142 134 103 40 16 34 58 54 56 48 38 29 38 31 35 34 62 71 73 77 67 54 32
140 152 178 188 185 180 190 185 164 179 178 196 179 186 184 126 104 92 108 87 97 134 108 104 109 150 143 67 47 16 9 17 41 57 55 44 20 3
147 159 183 168 154 114 108 67 88 131 141 155 202 184 171 173 149 127 89 -70 -18 133 151 145 145 146 141 143 62 12 -0 32 15 -32 -35 -26 56 40
162 178 184 157 122 162 91 59 79 107 141 143 175 205 132 110 73 65 88 124 116 141 34 75 153 157 167 153 88 73 51 26 8 -12 -22 -24 -28 -7
169 167 154 137 134 85 110 150 121 103 106 130 133 129 116 58 35 49 28 66 170 194 108 210 202 226 206 218 175 130 80 32 -4 -20 -18 -17 -25 -27
168 160 122 101 70 52 128 116 116 116 90 51 54 37 45 37 26 21 35 41 123 164 146 181 217 206 193 265 232 139 93 42 -6 -6 -2 1 -8 -8
150 134 77 89 51 72 99 112 110 88 99 98 65 60 68 88 35 38 55 101 157 204 174 173 172 140 117 238 132 134 99 122 35 13 16 13 12 -34
153 137 127 61 62 58 55 104 88 74 76 23 79 103 103 93 93 101 124 160 167 227 177 101 178 171 171 118 237 173 108 111 105 97 61 36 34 37
136 124 119 59 62 61 66 43 39 45 65 86 93 102 90 102 110 118 139 164 192 179 174 164 222 195 202 228 277 231 173 165 147 112 104 134 102 60
131 92 92 72 69 61 45 37 29 77 80 97 92 108 120 113 117 131 145 150 160 166 178 192 184 200 239 297 331 314 226 197 93 123 147 162 150 152
93 131 84 83 55 56 76 72 83 77 75 97 110 120 123 118 118 109 127 145 151 158 157 154 171 202 228 260 264 293 250 148 223 198 186 136 83 64
99 102 96 82 88 86 77 76 80 74 89 114 114 119 150 145 142 116 139 146 140 159 195 182 165 193 239 253 277 289 252 235 191 144 110 119 95 67
104 96 80 87 80 77 81 76 99 78 127 126 120 151 185 182 149 145 127 137 141 164 185 178 176 167 180 165 295 386 290 216 164 140 111 108 130 179
94 85 84 84 87 103 104 112 125 139 131 138 144 172 146 132 45 72 118 147 141 145 139 157 170 153 183 190 225 107 174 144 117 118 207 216 192 265
87 86 92 90 104 115 123 131 138 140 121 130 126 142 157 117 69 66 57 46 100 96 117 126 131 154 155 133 130 198 167 78 68 76 122 285 260 296
79 87 89 101 125 136 136 140 139 142 109 106 153 158 127 120 66 61 50 19 13 19 77 104 141 130 98 42 10 69 108 82 22 -1 104 153 354 437
82 87 97 119 141 146 144 145 153 153 150 152 163 156 164 169 58 66 50 36 15 21 47 78 101 77 40 23 19 33 65 93 90 56 84 120 183 182
83 90 113 144 167 171 159 153 161 178 170 174 182 183 173 152 125 92 50 9 -3 -1 -1 36 48 29 32 16 20 40 56 76 128 109 108 190 202 228

GFSNE_con_3kmhel_006.txt.gz
Helicity
115 110 118 122 142 145 159 163 162 159 126 197 129 155 129 123 103 116 138 82 87 95 95 108 139 120 104 103 107 102 95 93 105 114 170 185 121 71
116 112 128 157 161 180 182 182 202 208 294 235 182 161 140 145 125 96 114 55 61 36 38 95 87 91 89 85 79 78 92 134 131 97 61 46 41 53
115 131 139 158 188 183 201 203 187 188 231 240 209 172 155 145 138 126 126 109 90 41 33 44 36 48 43 48 72 86 109 106 99 80 63 48 54 57
129 142 144 147 170 196 204 176 183 204 248 225 196 173 163 156 137 128 122 114 157 84 41 29 33 24 28 42 54 63 76 81 74 58 51 22 18 31
130 140 138 158 169 169 165 193 199 198 200 211 200 193 195 157 144 150 150 135 179 104 54 40 29 18 12 19 37 49 61 78 95 84 66 68 69 38
134 140 150 147 126 122 150 172 195 199 162 174 213 208 209 195 160 171 144 172 174 149 152 109 48 43 16 1 6 13 29 78 89 94 108 94 90 68
131 134 119 85 77 146 190 185 162 159 156 161 207 228 180 160 133 145 181 177 195 193 181 194 183 176 181 67 30 0 2 26 41 39 62 79 72 46
134 116 117 97 141 128 107 78 106 121 169 151 169 168 174 157 168 175 185 166 206 203 171 236 204 214 197 178 89 43 25 1 0 0 8 16 28 43
113 125 153 163 147 160 122 115 139 76 86 129 145 148 147 125 128 122 167 205 206 213 126 229 202 207 189 168 85 53 31 20 28 25 13 -1 -18 -14
123 153 165 159 135 96 114 122 103 104 118 105 108 107 74 73 89 118 116 139 225 234 183 230 229 218 177 189 156 101 51 34 33 26 15 -2 -13 -14
160 142 129 118 67 43 104 112 107 102 72 35 49 45 45 41 57 81 84 73 165 213 186 190 220 191 192 256 189 110 76 36 22 7 -5 -14 -20 -12
125 124 89 93 42 62 94 108 95 87 90 77 60 63 66 98 51 76 81 132 139 192 198 182 207 204 270 383 280 247 178 171 59 21 -16 -28 -12 -21
156 150 112 47 48 51 57 94 90 62 47 19 88 106 117 119 120 119 115 131 143 195 182 126 260 269 264 360 375 281 177 173 122 93 45 15 11 19
148 115 99 54 46 58 63 15 17 25 60 81 95 121 119 134 150 143 138 153 181 190 194 183 270 259 289 364 399 373 285 220 164 136 129 106 56 44
113 70 78 55 59 59 22 22 25 72 65 84 104 130 146 174 172 148 139 140 170 177 176 193 232 256 290 385 432 388 302 244 127 199 207 194 150 133
78 113 70 68 53 24 56 67 85 71 63 103 124 138 136 145 151 131 155 146 170 181 158 156 150 202 265 262 257 345 322 235 280 272 258 188 144 163
78 106 84 72 69 71 75 83 85 93 112 122 127 113 121 113 129 115 150 163 162 171 184 167 137 158 192 187 198 214 228 244 228 217 200 162 117 154
100 86 79 79 76 81 90 101 127 108 132 128 125 126 135 137 98 97 90 123 136 147 149 124 139 146 139 116 136 173 118 124 129 133 214 160 161 232
84 81 84 87 94 105 124 139 143 148 128 127 125 155 146 145 38 53 42 31 37 87 111 93 78 47 82 97 110 54 73 111 122 151 173 223 216 244
78 82 87 93 105 133 153 147 151 154 140 138 147 160 164 147 57 40 34 26 31 46 75 68 42 36 35 48 87 175 98 94 135 191 195 279 295 254
76 81 97 105 126 150 154 154 159 167 140 149 163 160 159 163 80 34 39 12 0 13 37 67 71 50 24 4 17 53 104 90 94 185 281 228 233 256
82 92 102 108 140 160 166 165 173 165 154 146 145 153 166 154 138 108 56 40 27 18 28 81 63 2 -43 -45 18 44 88 124 116 128 196 235 216 175
89 93 104 135 165 182 182 181 184 199 190 184 179 187 169 154 140 139 120 78 8 -6 6 32 31 -29 -33 -38 -14 18 48 103 157 190 184 217 236 221

GFSNE_con_3kmhel_009.txt.gz
Helicity
105 104 99 93 103 108 125 144 150 138 121 157 144 148 104 74 51 68 94 54 47 44 62 81 95 119 124 157 171 165 161 160 167 170 126 107 93 88
114 104 100 110 111 128 155 168 175 178 258 190 161 127 79 73 46 56 60 48 56 48 50 52 64 65 68 72 92 102 111 116 123 115 101 96 92 83
117 123 117 123 142 157 166 180 201 198 229 214 174 130 96 89 90 85 73 74 90 47 42 27 20 34 37 30 34 58 76 87 88 101 104 104 93 98
125 129 129 149 150 155 171 169 174 157 180 167 151 145 127 94 80 83 103 124 142 89 32 21 20 12 8 -0 -19 21 22 45 69 94 117 135 126 126
125 126 130 138 141 151 153 152 143 147 147 173 177 175 134 104 123 137 100 101 114 64 59 52 37 27 17 10 -8 -24 -31 -45 -46 41 84 88 100 118
128 128 132 129 129 130 127 98 117 148 142 169 179 177 146 116 115 107 95 107 97 102 128 90 79 61 44 29 9 -8 -25 -33 -36 -21 10 40 68 97
132 127 128 121 96 101 136 140 138 149 166 191 173 154 122 102 90 95 115 109 121 119 136 128 171 168 178 90 61 26 6 2 1 -12 16 29 36 47
126 119 137 122 109 73 90 81 97 142 158 153 144 134 107 106 101 92 116 116 122 103 103 183 181 183 179 148 63 18 13 5 -4 -1 3 -2 3 11
128 128 128 131 104 120 101 83 101 78 88 126 111 104 111 106 64 105 111 127 159 191 109 192 199 222 193 185 85 45 22 4 5 26 45 55 48 41
124 123 121 111 102 90 106 122 106 86 102 89 81 102 99 -2 93 116 106 116 196 195 130 216 234 219 222 291 185 78 73 39 18 34 60 63 43 32
129 101 96 92 79 47 114 105 90 83 58 33 42 48 32 29 57 104 131 126 119 173 144 180 210 226 293 347 204 173 143 87 41 16 6 1 -8 -8
79 82 71 91 52 65 92 91 100 68 53 51 67 56 40 55 55 80 102 123 118 152 139 170 183 143 231 217 332 318 250 162 112 83 42 11 7 -2
115 106 105 52 53 51 49 83 69 32 30 57 56 51 66 75 81 76 77 116 119 181 185 125 176 184 188 331 396 327 275 267 219 135 66 42 39 38
115 100 82 49 46 44 56 32 13 23 63 55 48 62 79 105 112 112 110 132 147 164 176 146 171 178 211 276 297 272 259 257 159 156 161 129 82 53
97 58 61 51 45 52 31 15 22 52 45 49 69 95 104 116 128 105 98 97 124 142 140 125 137 172 174 219 206 192 148 199 107 207 249 215 193 131
69 98 68 56 49 41 37 45 54 51 56 67 75 88 73 96 109 79 66 66 64 97 108 95 110 118 124 137 110 167 169 166 231 244 255 200 170 167
75 96 77 59 46 45 54 59 60 67 79 80 77 86 79 75 98 69 55 42 26 27 72 104 76 65 80 110 125 130 173 199 230 218 259 198 147 170
89 82 64 52 51 52 63 91 98 83 83 94 101 115 118 98 89 62 30 -2 23 23 38 64 76 44 17 37 25 138 180 189 237 233 195 156 182 155
82 67 56 55 63 82 109 129 138 130 126 134 140 143 142 146 22 19 18 7 26 15 35 21 24 -25 -8 33 129 142 144 152 259 234 168 192 173 173
64 58 58 70 89 112 133 141 148 146 136 133 134 131 134 131 108 38 15 6 26 43 39 21 -2 -17 -3 30 121 194 94 140 165 216 215 264 228 167
50 58 66 89 113 127 142 148 141 153 138 161 164 160 155 135 127 107 75 12 -10 -6 28 41 36 24 10 14 36 70 107 90 83 182 254 208 202 211
48 62 78 100 111 130 140 137 140 153 162 171 165 177 180 161 156 131 80 18 -5 2 37 49 48 3 -36 -26 21 67 89 130 105 95 129 182 187 209
57 64 87 110 125 136 138 139 155 187 192 189 184 190 188 186 157 139 94 36 5 20 25 30 33 -0 3 7 21 62 81 82 115 140 147 192 220 263

GFSNE_con_3kmhel_012.txt.gz
Helicity
107 106 111 118 112 107 112 115 109 102 108 120 109 147 177 166 131 122 108 72 73 50 62 74 76 80 76 80 81 104 132 140 152 177 218 238 186 225
133 130 126 125 114 115 120 128 143 145 197 193 183 195 181 167 124 105 94 80 51 44 47 37 44 37 35 33 44 43 51 66 92 78 74 63 61 66
143 144 124 119 116 128 139 152 168 180 211 211 204 186 167 135 128 123 107 118 106 38 30 30 30 25 27 27 19 23 22 31 36 40 54 50 46 41
143 133 118 128 119 138 167 171 188 199 223 194 188 168 141 126 122 94 103 99 87 57 23 20 14 17 23 28 -19 -22 -8 7 20 10 9 30 42 45
127 132 128 129 136 169 168 179 195 209 204 218 197 150 145 129 106 116 81 75 79 39 21 27 25 14 18 -23 -12 10 23 30 39 33 28 28 30 39
118 117 126 137 153 160 168 173 195 209 183 167 162 164 166 123 113 100 85 78 65 59 74 52 40 23 28 33 22 18 8 21 39 47 33 29 27 13
112 115 135 154 135 146 193 191 194 185 144 154 180 182 135 117 92 93 86 73 68 69 111 84 109 134 145 86 68 36 40 54 57 66 49 38 28 18
117 136 148 148 158 149 160 146 104 127 119 157 147 153 100 97 91 64 81 28 56 73 105 149 134 143 173 165 82 65 60 55 37 33 36 34 22 10
139 143 154 183 173 173 133 59 80 49 75 109 120 94 91 70 72 85 -6 98 115 144 109 150 141 170 172 185 136 54 23 11 3 10 8 37 49 39
138 141 168 172 154 108 90 111 116 91 83 107 88 73 73 83 80 -48 36 -26 154 160 103 150 151 148 174 237 116 44 85 101 105 104 90 80 76 72
147 135 135 92 70 49 100 109 91 76 72 46 29 26 31 9 25 64 111 97 134 131 90 98 129 116 148 226 104 120 176 151 127 119 89 73 56 34
126 94 88 84 65 58 97 94 92 67 57 50 45 48 37 40 31 68 109 121 115 92 97 76 113 65 60 101 136 195 185 123 97 86 48 44 40 24
105 104 91 75 57 53 57 74 79 55 34 51 58 54 48 51 57 63 73 106 116 158 175 61 138 103 95 99 121 161 119 134 135 119 65 44 7 19
99 89 85 46 44 43 57 50 26 34 66 59 55 55 61 72 76 87 74 96 125 147 122 115 166 104 79 105 144 152 176 167 178 197 197 163 117 58
92 65 30 46 45 52 42 24 33 61 64 64 63 76 73 72 82 83 81 72 80 107 121 107 98 85 68 119 157 157 70 175 167 206 246 274 233 155
75 71 53 47 42 38 42 53 63 67 67 73 77 68 55 61 83 72 65 58 69 97 77 -36 71 60 63 98 82 118 173 206 212 223 229 274 211 185
67 63 67 60 54 53 54 62 68 66 66 72 85 92 90 88 101 83 71 35 30 45 64 21 -11 6 33 36 97 108 123 127 172 216 193 233 189 149
66 65 62 55 53 50 52 60 67 65 75 87 97 114 120 117 109 104 93 34 -6 18 7 2 16 11 -3 22 20 73 123 120 148 177 176 168 155 111
64 62 54 54 52 54 59 76 103 95 91 95 121 139 133 129 92 113 104 98 -2 1 0 -21 -15 -17 10 56 101 93 64 106 154 186 127 155 139 159
62 56 51 50 47 46 66 94 104 97 102 110 135 133 138 134 141 139 121 40 -9 19 22 -8 -23 -17 -1 63 134 192 127 118 109 189 147 171 161 128
46 44 39 44 45 61 85 103 101 117 123 142 149 151 154 151 178 160 149 25 7 5 23 33 46 42 22 38 108 122 106 69 54 106 124 136 117 109
14 29 33 40 49 76 101 110 112 125 139 144 149 159 169 176 179 162 163 41 46 29 51 70 48 35 17 43 105 100 117 120 55 58 80 99 108 90
19 35 36 48 76 105 119 113 115 140 151 156 166 178 183 197 179 172 157 70 57 42 39 78 54 37 40 46 76 68 105 112 84 112 130 139 165 142

GFSNE_con_3kmhel_015.txt.gz
Helicity
103 107 114 127 141 145 149 146 146 149 138 129 103 222 217 238 196 193 174 114 86 73 60 66 76 74 78 68 57 51 52 54 59 46 50 86 95 96
128 126 138 158 161 159 143 145 158 170 207 197 193 208 207 227 197 172 157 92 99 50 46 40 47 51 56 50 48 30 31 25 26 29 33 33 36 37
140 148 154 155 150 146 149 157 176 195 215 219 217 221 213 188 195 168 156 126 125 60 33 39 34 43 39 30 27 29 15 23 19 22 17 33 35 40
147 168 153 141 138 137 154 168 190 184 208 209 212 200 182 170 158 143 113 138 103 64 34 29 22 18 25 15 28 29 32 18 17 41 33 29 24 25
145 145 141 142 147 162 184 191 198 210 228 244 248 221 178 158 137 123 106 112 125 75 28 18 15 4 13 40 35 30 -14 10 37 51 68 52 37 39
131 125 128 147 156 181 203 197 213 236 237 244 225 187 159 143 120 123 117 109 89 78 66 48 -6 22 36 41 15 -11 5 37 33 33 42 54 39 38
126 129 141 167 175 148 172 179 199 223 211 190 178 158 141 122 115 117 106 83 80 95 104 115 108 136 138 84 58 34 39 25 15 11 20 8 13 11
139 156 172 168 155 168 150 168 160 164 146 148 153 142 118 118 119 103 81 90 81 83 74 67 130 170 178 158 69 32 -1 -12 -1 11 8 9 0 -3
152 158 151 160 177 190 188 140 120 58 74 101 118 137 130 109 105 125 105 100 105 63 84 93 152 162 156 157 123 59 -13 -4 20 26 49 67 95 108
141 130 149 157 168 171 166 139 118 98 88 114 127 125 104 109 129 119 106 125 115 146 122 141 130 125 142 201 191 38 10 47 62 64 75 83 63 58
137 150 152 168 153 100 121 114 93 96 76 47 43 26 18 13 37 111 121 134 74 146 128 145 91 115 96 189 178 29 27 53 42 26 34 34 29 39
170 153 152 148 102 69 101 94 90 81 75 65 74 63 55 60 27 72 102 126 128 106 132 120 106 74 75 177 115 162 92 65 19 20 37 40 28 72
159 159 139 89 74 45 49 79 76 61 53 75 81 88 84 79 82 60 64 123 135 148 147 81 115 102 149 126 143 142 80 65 95 68 68 62 46 57
154 127 105 59 42 41 51 39 29 38 85 88 92 101 101 103 97 99 108 136 159 182 165 111 184 139 119 65 89 137 106 84 91 125 144 133 122 127
117 82 52 39 41 54 40 28 42 84 89 98 112 119 128 137 123 113 113 106 115 131 153 134 164 129 155 16 47 124 36 48 86 115 164 191 239 216
97 90 63 42 47 48 54 64 76 79 82 92 107 134 144 138 135 124 121 118 127 141 111 116 69 -39 -6 2 11 100 47 105 185 195 156 168 185 217
76 92 76 70 68 63 64 66 72 82 87 99 123 134 142 131 132 132 143 146 138 122 49 95 77 16 20 59 44 110 75 148 144 96 64 107 177 174
91 80 71 68 65 62 60 70 94 80 99 108 130 145 149 139 139 148 148 139 143 142 84 19 12 15 40 66 48 6 71 107 121 99 109 89 170 175
85 74 70 68 66 69 72 84 108 120 102 123 141 158 159 158 115 151 152 158 154 150 103 40 -1 -2 57 129 196 102 12 103 134 127 121 106 116 185
72 65 67 65 63 64 79 110 129 128 116 129 157 162 163 174 178 179 160 162 167 141 117 53 22 37 55 97 182 250 133 86 106 140 102 137 136 141
55 54 60 59 67 81 111 130 135 131 109 133 158 164 173 176 191 197 187 91 51 58 92 107 99 68 58 93 126 156 169 101 63 68 85 123 89 104
2 44 55 63 78 102 129 135 140 130 133 148 160 167 180 198 196 178 147 128 121 123 161 158 122 88 63 65 132 159 190 136 104 104 138 105 74 111
22 40 52 73 99 126 132 138 137 152 159 165 173 182 193 208 204 179 156 149 153 122 88 139 125 58 60 78 83 133 142 109 111 141 180 128 113 122

GFSNE_con_3kmhel_018.txt.gz
Helicity
76 84 103 117 150 144 152 166 170 163 125 122 112 141 134 144 157 172 167 131 115 97 108 105 97 108 111 105 102 92 71 64 54 27 24 9 18 16
95 120 127 152 162 156 161 168 179 192 212 208 177 167 158 161 131 130 157 105 109 74 70 72 96 80 81 74 64 58 38 22 18 21 33 26 28 23
114 128 142 170 150 156 162 164 182 199 207 198 193 176 188 160 151 159 145 155 134 55 60 56 50 58 58 41 34 17 15 18 29 33 39 48 47 39
120 149 154 162 168 158 163 168 194 198 219 190 192 195 200 168 164 169 138 136 119 61 41 32 29 29 8 16 10 7 -1 8 24 31 33 22 17 26
139 159 157 162 170 176 181 210 209 198 219 223 208 199 182 167 158 145 127 128 122 63 41 23 25 10 16 15 6 -2 19 18 10 7 9 12 23 28
156 150 152 156 166 183 197 184 181 195 196 205 207 191 172 145 141 144 116 134 119 105 73 59 37 33 34 15 20 24 20 16 7 4 10 9 0 -2
152 147 167 181 171 164 184 197 189 202 213 202 179 173 143 114 119 131 137 114 108 114 108 147 117 166 130 80 66 52 34 18 5 23 21 -9 -31 -37
148 150 158 147 147 168 163 144 153 184 188 171 154 126 114 127 159 128 126 133 138 119 128 132 131 141 144 154 59 48 42 13 25 20 -49 -38 -35 -37
133 135 143 150 148 164 152 128 137 111 98 109 114 112 113 108 124 141 140 131 151 142 131 138 143 143 144 131 52 64 53 50 24 -9 -11 -14 1 43
115 128 150 151 156 152 177 189 161 124 99 102 92 88 100 88 99 113 107 125 124 105 112 142 181 121 103 127 94 44 61 54 25 21 14 -3 -9 28
140 155 162 173 172 132 201 165 112 103 75 24 17 17 20 14 47 106 107 110 98 106 139 145 127 99 103 123 85 34 138 105 89 49 38 4 -22 14
145 146 141 157 136 137 136 118 94 76 79 76 80 66 67 98 40 83 114 126 125 146 172 151 93 59 48 126 118 139 146 168 128 105 62 31 26 91
137 147 154 112 95 71 57 92 75 63 61 81 86 105 112 116 120 126 137 163 165 193 183 124 157 106 97 82 127 146 133 187 181 156 96 64 41 58
148 140 129 73 60 37 59 39 31 44 75 88 104 116 119 127 120 133 136 138 165 187 177 142 172 144 33 56 113 95 130 135 118 142 106 43 28 39
146 103 74 56 37 56 42 38 50 80 85 86 94 106 116 140 144 142 134 141 157 175 177 145 153 118 81 10 42 84 69 109 80 85 103 106 134 139
109 111 83 46 40 52 54 67 81 76 70 78 94 110 132 140 146 148 159 168 166 182 156 148 136 103 20 35 9 60 50 64 107 127 110 136 125 131
90 98 86 75 53 59 66 74 75 79 84 97 112 128 148 145 154 152 164 177 173 183 155 155 133 142 118 89 74 86 58 76 125 162 147 120 160 121
96 94 78 55 54 53 53 58 85 89 112 126 128 150 169 173 169 170 169 172 188 136 113 143 104 81 90 99 80 85 114 146 178 108 111 74 119 111
88 65 54 48 56 61 65 80 107 133 130 140 144 169 183 187 136 191 190 176 112 128 149 144 100 86 125 200 168 115 26 153 148 155 166 107 95 163
53 40 29 49 56 60 80 105 129 146 145 148 173 167 170 173 180 187 169 104 92 120 141 116 105 124 125 159 223 245 121 83 76 117 127 104 119 133
29 32 28 51 56 75 101 123 142 163 137 150 169 167 172 163 178 170 152 94 58 92 134 155 160 110 83 93 133 159 159 112 81 64 107 127 87 77
24 17 39 61 79 101 122 137 160 170 166 173 180 180 187 180 180 163 149 135 150 153 194 190 133 99 91 96 135 163 162 145 132 117 137 111 99 78
31 39 61 87 105 123 140 159 170 183 188 205 215 214 214 206 183 174 175 185 163 154 103 110 104 78 88 98 69 123 123 121 106 118 173 105 77 67

GFSNE_con_3kmhel_024.txt.gz
Helicity
118 101 98 94 112 139 164 166 162 172 158 144 132 120 91 74 63 94 113 112 112 129 142 157 162 166 172 144 114 133 171 83 79 66 51 50 44 30
113 104 106 104 117 164 159 160 204 200 233 192 173 135 110 104 93 115 129 111 118 119 118 135 135 139 135 139 133 89 92 78 70 47 40 36 39 45
123 91 82 95 125 136 161 200 194 214 229 212 185 164 166 144 141 163 150 169 160 98 115 115 113 117 109 89 84 78 69 66 51 40 48 43 45 43
101 99 77 99 113 141 179 173 185 189 207 170 174 172 155 158 176 169 182 163 173 110 90 86 93 93 86 83 72 80 85 64 58 64 70 64 56 43
122 99 99 140 140 177 183 177 186 172 185 204 189 185 177 170 166 174 184 157 141 83 62 63 68 70 72 75 85 86 78 66 67 58 57 52 52 49
142 141 146 148 165 165 166 154 164 179 184 203 215 207 192 157 169 188 174 137 131 116 95 58 52 58 71 78 92 86 71 65 65 51 39 37 33 35
157 177 176 168 132 135 159 162 183 202 211 228 234 232 165 164 182 147 141 111 100 106 105 85 126 144 182 115 86 56 54 59 61 46 39 24 17 26
161 193 179 160 164 162 168 173 181 209 230 243 238 183 177 163 138 123 119 97 70 67 108 105 113 132 156 144 57 26 39 47 56 43 37 28 20 17
176 171 176 192 205 193 191 192 204 182 173 177 203 163 146 127 130 125 98 101 110 119 102 120 125 138 150 126 40 33 33 41 58 52 41 41 33 33
147 149 159 163 172 194 214 245 217 179 165 160 150 140 139 116 104 102 97 114 124 125 106 155 136 146 110 133 70 11 5 28 44 45 40 46 43 30
132 149 154 182 181 206 242 212 185 161 119 59 56 56 59 48 60 117 115 119 127 132 123 110 110 103 112 115 80 -10 -0 36 45 68 55 37 35 33
129 156 180 198 185 158 191 192 167 131 115 93 100 82 80 91 58 117 140 149 144 95 119 141 129 107 59 135 88 154 143 67 42 39 51 40 40 55
146 163 177 162 147 155 144 162 123 89 97 66 59 69 77 93 112 124 131 163 149 178 184 126 197 177 189 177 107 124 163 157 158 130 93 45 41 42
139 147 148 126 163 140 131 80 56 64 61 58 66 79 98 112 109 117 126 142 181 192 174 160 226 200 168 -1 16 98 165 181 163 131 32 51 36 32
158 142 175 178 148 124 66 56 57 68 61 65 75 100 118 125 115 121 127 139 154 171 175 139 130 91 120 96 70 93 77 168 115 28 16 19 59 93
163 172 178 165 121 64 50 54 68 64 65 76 92 102 100 115 124 128 129 113 97 109 133 124 106 125 130 159 157 198 183 130 106 86 70 63 49 14
194 155 138 106 61 41 51 53 55 61 70 93 106 109 118 126 139 122 126 113 123 111 119 110 108 114 161 164 149 188 163 134 154 141 72 107 93 61
165 140 111 57 31 34 30 37 50 46 85 94 108 143 158 153 134 115 118 127 148 157 157 158 132 101 100 157 226 232 242 216 203 149 121 109 161 133
118 88 49 34 35 23 26 41 60 83 89 94 121 154 168 167 110 150 158 162 176 179 201 198 172 164 160 202 185 159 101 121 100 123 129 105 86 146
65 36 35 24 14 15 34 58 70 73 81 102 130 145 162 173 164 172 170 164 182 208 212 174 167 165 170 177 199 198 84 28 69 83 100 61 87 120
32 29 10 13 16 49 69 85 89 90 77 100 133 150 174 188 211 215 205 131 138 199 206 200 188 101 120 113 103 146 127 75 9 13 27 19 22 42
18 11 19 13 51 68 78 79 81 90 102 116 143 164 195 217 238 239 218 205 219 236 268 267 174 118 98 44 100 111 103 82 97 59 25 -12 -13 60
19 28 43 66 67 76 78 83 91 110 115 135 152 173 208 221 224 237 222 237 254 237 187 160 145 126 128 91 34 56 67 63 20 30 98 70 44 61

GFSNE_con_3kmhel_027.txt.gz
Helicity
318 213 184 133 117 121 129 132 138 155 138 142 146 148 163 117 83 93 90 88 94 106 108 117 140 158 174 174 158 134 135 138 104 84 83 72 83 60
271 176 192 120 119 119 121 126 143 169 203 143 178 174 155 133 110 127 126 99 94 107 111 130 143 157 143 115 113 117 86 74 97 71 70 65 57 51
217 165 169 150 103 116 131 149 154 194 192 215 204 185 181 152 144 156 142 160 167 130 137 140 141 110 101 103 86 71 65 60 73 61 57 59 55 45
299 181 107 120 125 130 140 135 171 195 222 201 193 181 173 142 141 149 149 165 180 135 104 108 106 101 95 77 67 52 60 78 70 73 77 58 49 49
197 176 111 128 131 147 159 166 185 192 199 214 191 174 155 149 160 166 174 178 181 109 91 90 67 57 60 55 62 71 66 65 72 72 58 48 47 45
158 156 145 136 124 158 168 160 170 182 186 197 195 191 167 142 175 166 181 169 161 129 102 40 31 49 63 55 62 58 57 58 58 62 61 49 42 48
152 139 134 141 134 138 159 149 161 175 179 191 203 211 183 173 180 183 178 145 125 125 98 102 125 152 171 108 94 62 58 61 68 67 59 53 42 43
135 156 150 175 193 184 174 177 164 185 207 200 201 207 203 181 180 152 148 126 111 78 112 116 115 151 159 135 61 37 46 47 44 48 53 48 35 42
143 147 173 169 172 160 168 163 171 139 135 180 217 203 192 147 147 137 129 138 140 134 122 134 128 154 138 120 32 25 19 11 25 39 46 55 50 42
128 134 136 136 140 130 144 175 148 137 161 203 177 160 151 125 124 120 115 139 149 135 124 156 124 135 109 138 69 -3 -12 1 26 43 52 55 66 49
111 119 116 109 119 151 120 141 179 187 162 89 81 60 47 39 57 122 136 143 136 132 137 135 154 127 132 133 68 -3 -2 23 27 39 56 66 67 41
113 118 134 128 72 81 177 209 207 172 139 107 95 67 69 83 60 132 169 179 168 133 160 193 175 139 99 178 149 168 148 60 31 27 37 52 55 100
118 112 107 98 133 177 206 213 170 119 95 69 52 61 70 88 110 133 143 195 188 231 223 116 245 200 231 235 225 186 170 158 164 146 81 47 27 44
86 100 116 135 168 167 171 135 93 74 56 51 47 52 65 89 107 120 127 145 186 210 148 119 233 210 207 218 216 222 211 211 193 165 133 71 0 -13
140 137 142 143 139 165 142 92 52 48 40 33 34 59 92 121 118 127 128 124 143 164 156 133 138 143 185 226 252 254 147 179 142 73 59 56 56 -7
142 139 145 154 167 131 80 44 42 36 28 33 49 66 83 102 125 128 129 112 104 119 132 125 126 151 191 221 222 254 221 198 157 127 130 114 98 74
147 139 138 131 108 55 33 32 33 30 35 43 51 60 81 101 124 125 147 152 156 141 144 140 145 177 223 216 201 241 222 197 197 170 100 128 125 111
160 136 116 84 37 25 27 24 24 20 42 50 65 85 106 124 131 156 159 170 180 183 184 185 165 140 142 174 205 226 237 261 210 176 149 162 177 127
118 94 68 38 32 27 24 30 38 54 60 69 82 106 120 144 119 180 177 183 199 205 231 216 192 175 162 175 199 170 88 171 124 127 156 112 93 123
73 40 37 36 26 38 37 38 48 52 60 76 101 112 124 146 168 178 181 183 189 202 220 194 197 186 181 173 173 215 142 125 90 72 80 121 136 124
18 24 36 36 44 46 50 57 60 63 59 77 96 118 134 155 178 194 199 121 87 193 220 226 242 134 199 190 187 201 196 139 120 47 16 10 51 57
13 28 34 49 49 51 54 57 68 73 87 96 112 124 143 169 188 179 189 172 192 228 262 286 244 216 205 180 159 146 151 109 133 75 28 -23 -44 93
13 25 42 52 63 73 75 84 84 100 102 108 117 136 159 179 191 202 206 220 241 250 224 217 193 194 197 158 123 121 138 119 84 122 178 70 55 83

GFSNE_con_3kmhel_030.txt.gz
Helicity
425 339 231 273 242 241 197 215 174 151 121 119 131 152 171 178 144 121 98 85 83 92 82 81 94 111 127 133 144 156 144 130 139 131 107 96 98 72
466 467 313 329 269 239 173 186 150 170 170 120 140 171 173 158 121 127 121 109 109 100 92 94 110 118 115 114 109 110 104 97 75 82 61 66 40 58
483 477 324 256 243 209 177 142 146 160 178 180 189 185 179 143 134 143 140 150 152 92 93 110 131 120 102 91 84 83 66 63 57 53 57 74 76 77
493 439 358 186 280 220 190 136 123 128 179 167 173 172 150 139 132 135 131 130 139 97 90 117 121 99 84 74 80 56 60 54 53 46 49 49 45 40
358 531 255 155 225 177 169 129 128 157 168 184 170 151 143 134 147 137 148 163 166 89 75 88 82 81 79 74 61 69 55 42 34 30 29 30 21 15
485 374 366 220 229 171 114 131 158 159 167 171 167 172 158 122 153 146 155 172 156 131 98 67 63 79 63 53 52 48 40 38 38 35 33 32 33 32
348 262 229 145 102 98 148 143 155 156 150 162 169 175 158 147 152 172 184 158 131 124 122 124 135 187 195 117 79 45 49 52 42 34 32 32 36 42
258 155 105 111 138 147 148 133 124 138 151 164 170 165 152 156 190 169 170 145 101 113 147 152 135 180 190 162 62 36 29 19 20 29 32 34 40 43
111 99 95 113 131 133 132 134 142 124 125 154 159 141 170 179 183 179 122 115 132 157 138 140 152 185 165 149 52 40 22 20 32 41 40 41 48 49
74 104 126 132 116 116 118 127 130 120 137 151 160 167 164 133 130 111 97 123 151 139 141 181 156 168 151 167 96 14 13 28 41 37 37 48 62 74
106 115 98 97 82 86 113 136 129 119 122 90 108 105 87 58 56 80 95 102 112 135 152 164 186 177 155 154 80 30 42 29 19 3 -20 -45 -63 -51
81 86 100 102 81 82 120 123 102 97 130 143 142 98 79 67 36 82 123 138 150 132 142 194 196 160 143 247 201 219 166 100 46 24 14 -4 -21 -72
103 110 109 95 82 82 117 127 126 136 147 123 88 82 69 61 76 93 110 174 164 208 219 151 270 215 244 287 269 237 211 178 168 132 71 27 -2 -16
112 103 66 20 98 126 146 130 131 160 116 77 58 55 54 67 83 100 115 138 184 202 171 157 244 236 243 235 239 213 217 215 174 141 120 73 26 20
73 72 117 139 139 150 146 159 140 85 44 39 38 59 76 91 98 99 104 121 141 177 172 147 176 166 215 260 277 258 177 186 161 100 106 138 117 62
119 135 164 164 155 125 113 81 46 34 23 26 45 53 59 77 96 101 109 111 117 156 162 156 151 182 226 252 241 250 218 245 195 192 162 137 119 125
182 152 129 101 79 62 36 28 25 17 26 35 39 47 59 69 94 102 130 139 159 164 161 149 166 194 220 227 223 222 197 179 242 232 126 129 122 140
138 96 62 37 13 18 19 16 27 23 41 49 58 66 73 80 86 112 129 141 147 164 177 190 177 152 147 177 158 213 204 206 221 198 157 143 136 123
62 37 14 13 19 15 32 49 59 63 71 73 77 83 87 107 86 131 137 147 154 177 220 218 200 170 184 200 225 135 188 215 147 127 170 139 151 172
22 8 15 12 16 30 43 55 62 67 71 77 90 102 103 114 126 144 153 158 170 197 214 188 189 201 205 190 169 244 172 172 112 90 76 105 178 153
8 11 11 22 31 41 54 72 81 78 66 79 83 95 101 118 146 172 183 118 99 190 191 198 205 112 178 231 231 222 219 179 161 133 79 21 23 57
1 8 20 41 48 56 68 82 87 87 91 95 98 101 110 133 168 187 199 194 201 197 201 251 222 165 170 173 187 184 238 235 196 111 115 123 144 146
12 23 34 47 68 82 83 95 101 108 106 104 100 103 116 147 169 190 214 220 212 210 219 224 178 146 171 175 161 199 194 206 164 197 165 125 132 182

GFSNE_con_3kmhel_033.txt.gz
Helicity
401 401 397 424 500 327 472 287 324 278 258 226 243 149 111 129 139 137 133 108 86 86 79 74 79 91 90 107 123 134 144 133 119 117 108 107 98 88
479 509 488 472 463 436 411 425 389 277 266 191 170 129 113 115 120 131 118 90 86 73 75 86 101 110 116 111 101 101 84 77 74 68 84 66 82 85
502 566 589 479 501 364 415 433 326 285 253 226 153 131 118 127 143 137 119 114 114 93 112 126 138 128 119 97 82 58 47 55 58 64 60 71 71 83
627 661 667 434 555 407 414 358 406 240 209 119 137 117 119 130 116 110 119 119 112 93 113 137 123 108 85 60 48 50 57 50 46 42 44 41 55 50
616 612 538 501 550 473 527 447 305 186 127 118 104 117 122 105 105 105 101 105 116 85 105 107 86 76 56 50 59 52 36 39 36 38 38 35 32 30
561 527 501 408 422 336 353 231 163 117 95 102 106 122 122 102 106 100 111 108 115 108 110 65 53 49 30 45 51 47 53 56 55 53 48 46 37 30
479 467 369 336 216 184 196 127 109 107 103 124 148 139 125 110 117 125 112 110 118 113 103 73 83 96 114 113 91 71 81 75 70 71 61 50 47 41
283 278 208 187 161 87 63 77 86 100 154 166 142 137 125 126 125 122 122 123 155 74 89 65 82 109 118 101 57 56 49 47 47 41 42 45 56 63
211 183 171 105 78 98 111 128 129 125 138 141 144 135 127 114 126 127 112 129 105 85 70 81 92 91 81 81 54 48 41 31 33 44 50 64 72 65
112 83 88 98 117 120 134 148 145 149 158 165 148 126 135 131 128 121 92 71 68 71 56 84 71 79 77 83 57 18 5 28 44 52 60 59 56 66
95 84 87 96 115 131 152 155 135 119 123 113 139 145 132 101 91 87 68 64 61 60 64 58 85 69 77 92 54 41 54 44 34 28 16 21 32 40
110 109 126 133 134 121 131 131 119 111 109 118 131 129 116 80 43 59 58 57 60 59 90 104 92 70 44 106 91 118 106 71 50 46 48 42 30 63
110 116 112 93 78 102 132 112 97 95 130 127 116 102 67 55 54 54 54 66 77 111 124 101 145 99 141 165 114 125 131 144 119 107 61 46 51 60
101 80 68 72 109 128 128 103 101 110 83 58 41 40 39 42 49 51 53 63 86 128 118 114 205 166 190 191 217 154 154 169 126 114 118 74 46 48
85 95 128 138 131 124 97 75 63 41 28 30 31 34 36 39 46 46 54 53 65 108 133 119 161 163 201 250 253 241 165 137 115 97 111 106 85 71
129 148 146 127 97 67 52 36 34 35 29 30 37 38 38 47 55 53 58 49 50 64 87 114 124 154 216 231 214 256 205 189 181 183 146 129 97 94
151 124 99 69 41 22 17 17 14 20 30 35 39 40 42 45 54 57 58 52 68 98 104 102 108 147 206 204 201 224 172 175 192 171 121 108 117 106
117 86 39 12 6 3 -0 8 17 22 30 36 40 44 46 47 47 53 60 73 100 114 125 135 134 131 135 140 132 165 171 159 181 154 138 92 180 142
70 29 10 5 -7 -0 10 18 30 36 40 45 47 51 50 52 45 58 67 90 133 130 157 165 159 135 133 129 148 107 156 198 132 134 161 156 147 192
24 12 8 -6 -1 5 16 25 33 41 48 52 58 60 61 55 58 74 94 125 149 156 159 145 149 157 161 98 92 185 160 186 219 201 182 167 180 183
13 10 2 4 9 17 26 39 50 57 56 63 70 68 63 64 73 97 117 87 93 153 167 174 183 99 158 146 185 175 174 151 157 157 164 125 67 38
6 1 7 14 14 22 38 49 55 58 60 65 75 83 73 78 100 106 118 133 149 169 196 201 197 181 177 144 128 126 135 133 118 80 100 130 98 126
4 7 13 16 22 34 48 57 65 74 80 93 106 110 101 95 99 117 131 148 168 172 154 182 210 172 175 149 109 145 114 108 96 49 87 92 113 108

GFSNE_con_3kmhel_039.txt.gz
Helicity
319 327 322 302 348 419 458 395 399 432 374 358 421 450 427 417 392 433 308 331 214 145 127 141 100 75 82 93 85 82 94 105 108 121 135 128 119 128
283 285 373 428 450 461 508 466 444 392 292 408 533 575 613 591 554 483 339 304 171 131 143 120 78 63 65 68 69 78 90 101 127 135 122 122 108 110
352 363 406 383 424 447 470 537 529 466 544 496 451 606 585 447 396 291 279 232 200 141 146 123 85 58 52 42 52 71 78 93 98 90 92 94 92 93
279 279 278 322 380 407 433 482 455 414 463 384 420 392 388 330 228 214 189 184 191 149 121 106 80 63 41 47 78 79 78 77 72 78 89 84 66 64
202 245 283 325 349 364 375 377 320 307 326 284 361 324 247 203 186 190 175 161 134 65 63 76 74 73 78 88 84 76 71 65 63 67 61 53 50 51
253 232 248 248 252 259 249 239 266 261 267 243 282 278 215 175 179 151 134 108 124 128 99 105 84 89 103 96 81 67 55 48 51 54 55 57 59 54
247 240 239 228 184 131 188 180 190 196 215 223 228 170 134 125 112 133 155 162 143 114 125 131 132 140 133 109 77 51 50 62 68 68 68 66 58 51
216 230 225 190 215 149 146 148 173 184 155 123 125 117 107 122 142 170 190 186 160 91 169 156 127 147 121 96 41 37 47 50 56 62 62 61 54 50
183 177 173 162 206 153 154 142 94 64 82 113 139 149 160 202 236 200 168 167 153 134 163 138 130 114 78 69 26 30 33 39 43 47 50 52 52 50
147 115 95 81 95 75 73 82 99 103 116 128 159 163 186 192 186 179 147 129 97 97 91 59 84 65 70 61 27 19 17 23 38 42 48 57 59 56
58 58 40 47 65 70 89 102 96 109 130 147 153 143 134 124 120 131 90 63 56 51 66 59 75 57 61 79 60 -2 24 41 39 37 49 47 50 41
19 43 75 112 97 89 106 137 173 210 222 197 167 133 91 70 30 47 54 67 64 58 67 88 95 76 37 81 63 103 85 43 37 35 35 40 48 105
63 76 98 116 130 146 178 211 203 197 162 132 93 54 40 43 52 60 70 90 86 92 107 77 101 116 130 144 119 126 117 102 108 108 69 47 38 61
107 128 151 167 187 191 174 141 127 111 84 53 37 40 44 53 58 58 63 69 81 88 83 87 136 112 122 136 175 177 144 120 110 114 119 79 35 36
144 149 142 133 123 122 124 115 82 57 39 40 40 47 54 62 70 64 56 71 88 98 95 122 157 139 189 227 235 179 86 136 108 107 114 110 107 99
129 141 150 128 110 102 92 70 50 37 37 38 39 47 54 66 77 78 72 75 72 69 85 91 142 187 203 227 227 237 199 201 170 157 156 135 138 152
125 127 126 125 123 109 91 59 42 37 43 40 47 54 64 73 80 85 87 90 94 82 72 86 94 125 179 205 214 241 211 206 200 195 182 165 202 191
125 110 120 130 126 109 83 66 49 40 39 46 53 65 75 83 77 77 86 95 92 93 86 86 91 103 132 166 166 210 236 238 209 185 157 136 146 123
111 130 137 135 123 92 68 53 45 40 47 58 58 69 77 76 65 81 81 91 96 92 100 107 120 126 117 131 149 139 193 222 201 159 181 175 164 149
131 129 128 118 97 78 60 51 49 49 52 55 61 65 71 88 91 97 105 107 102 104 111 119 133 146 161 165 30 182 175 179 206 208 217 177 170 109
119 118 104 88 75 63 52 48 52 54 54 63 69 76 80 85 98 107 115 70 72 120 131 135 149 72 127 138 170 155 203 197 219 240 223 172 149 89
105 99 85 75 69 65 63 64 67 72 80 90 86 79 86 98 108 117 134 137 147 151 159 155 123 112 124 140 114 91 167 220 235 194 153 150 156 132
91 81 75 70 70 71 73 77 82 89 97 102 104 105 97 113 121 137 148 159 168 163 152 154 134 123 141 165 119 116 121 192 223 147 191 161 151 161

GFSNE_con_3kmhel_042.txt.gz
Helicity
285 329 411 403 372 385 402 382 413 377 515 705 730 651 448 397 317 367 270 306 306 243 219 178 132 151 133 126 113 105 103 92 80 69 73 74 75 72
299 310 315 360 373 371 361 356 401 434 420 454 369 401 487 439 361 432 341 348 278 201 174 105 77 87 111 111 97 95 85 71 71 84 82 83 88 101
234 234 299 313 324 335 361 381 400 431 476 380 439 439 430 377 355 332 281 253 185 138 83 85 112 123 121 87 82 81 64 71 82 84 85 95 105 123
200 229 245 250 249 240 261 272 287 303 338 331 365 376 375 348 262 240 218 187 169 111 107 116 117 106 89 89 94 76 74 87 80 79 88 105 116 122
129 151 159 175 196 191 184 184 172 204 221 223 266 291 293 294 260 217 177 164 139 86 88 117 129 107 98 81 72 66 75 84 85 95 105 101 88 71
204 177 170 150 144 138 138 149 152 164 214 244 228 235 251 247 216 184 167 141 134 107 139 142 93 100 91 102 94 99 103 94 88 81 68 53 45 40
220 173 130 123 129 126 140 148 130 172 157 146 221 178 196 191 144 124 139 152 167 139 153 138 145 150 116 114 108 95 84 71 58 48 40 33 28 25
195 280 258 188 151 102 102 102 136 143 130 117 142 148 131 128 157 166 186 181 167 120 198 141 157 146 143 156 75 47 39 34 36 37 35 31 26 25
208 152 135 133 162 159 120 103 101 139 123 134 119 117 133 168 177 178 177 178 165 148 162 111 155 118 123 74 26 22 24 28 33 33 31 29 29 28
130 125 113 94 79 97 102 98 113 100 64 104 133 147 172 190 195 174 152 127 104 102 77 62 78 40 54 80 53 20 20 31 42 53 52 49 46 45
64 38 36 37 52 65 71 61 70 75 90 115 129 125 120 114 102 108 87 62 53 63 84 66 63 49 67 90 54 34 47 66 66 50 51 51 57 60
48 68 80 77 83 81 106 140 163 188 201 182 146 122 90 72 14 41 84 90 86 80 100 86 96 57 39 60 75 100 85 59 49 56 50 47 52 96
89 99 114 137 133 149 165 172 168 163 144 124 97 69 36 28 39 46 65 106 108 111 111 72 87 88 83 87 95 120 89 86 81 78 35 42 53 73
117 127 130 130 130 128 131 125 127 128 123 108 87 54 41 39 36 44 54 57 74 78 91 115 103 93 81 79 102 111 92 78 86 105 90 61 42 39
118 120 129 127 126 143 128 131 125 124 111 96 64 53 43 34 42 51 52 55 63 71 76 106 129 113 136 143 140 108 74 114 94 89 123 136 129 132
130 120 112 110 116 118 124 120 116 95 77 65 56 47 42 45 57 64 73 65 71 74 95 96 127 155 135 165 182 151 132 136 160 156 171 172 189 202
105 106 107 109 113 118 122 115 102 77 72 58 59 53 48 49 54 57 64 67 80 78 75 99 109 121 135 135 147 176 141 142 181 189 161 150 149 163
105 93 96 105 108 107 111 108 87 70 56 57 59 57 60 65 67 70 79 85 90 92 87 88 97 112 118 127 138 153 152 171 173 185 205 182 141 140
97 88 91 89 90 86 84 84 78 52 45 51 66 71 72 78 58 80 82 88 96 99 99 101 109 121 124 127 123 102 141 130 142 127 156 181 204 190
97 91 90 80 76 79 81 81 57 56 59 58 60 69 80 80 78 79 82 89 98 107 125 137 139 147 157 161 145 133 144 145 147 158 178 175 240 158
75 76 81 76 75 78 78 76 74 70 64 79 89 92 92 87 88 97 115 45 43 95 117 134 144 59 111 131 171 178 156 110 142 169 169 111 132 167
80 76 71 71 76 81 83 86 87 96 98 112 111 119 117 114 104 99 112 113 123 131 140 148 129 134 157 165 170 114 23 87 147 137 116 134 151 90
80 82 83 82 81 88 101 108 116 116 132 144 135 135 132 127 114 120 125 123 127 126 129 136 136 142 171 178 139 60 -22 16 114 146 163 178 148 154

GFSNE_con_3kmhel_048.txt.gz
Helicity
127 146 178 187 233 243 260 299 246 234 155 157 205 210 279 344 376 537 616 433 384 354 244 237 189 116 127 120 107 80 59 72 83 95 84 68 58 76
153 136 158 190 203 211 226 252 270 242 251 219 195 150 207 275 341 471 504 372 258 198 149 120 94 108 74 70 70 73 87 90 101 87 80 74 84 76
188 179 167 171 164 160 166 211 238 265 240 233 186 146 157 220 331 358 380 270 236 122 104 150 108 77 55 69 94 100 94 86 84 101 77 74 85 79
167 161 171 186 184 176 159 159 199 207 201 182 172 140 230 190 268 220 258 185 155 121 66 83 70 81 93 100 75 72 73 85 81 86 91 87 98 97
130 153 170 180 152 113 140 127 169 156 179 172 122 178 170 225 177 208 134 122 116 76 88 89 87 74 59 77 79 75 77 67 81 97 98 96 99 113
130 138 151 144 112 118 136 148 170 179 185 154 100 124 134 113 102 139 147 136 124 110 86 66 89 108 98 109 106 105 148 153 129 118 111 101 98 91
155 141 147 136 115 112 116 161 122 82 150 143 153 124 123 135 124 144 147 151 114 108 116 133 139 131 125 116 117 114 127 132 122 110 96 82 73 68
107 121 146 143 170 138 138 163 95 64 129 127 120 127 145 165 149 130 132 142 145 142 169 147 143 149 159 168 128 110 92 71 55 50 44 37 33 29
26 37 44 48 64 59 67 92 111 133 127 99 104 126 137 146 147 142 144 157 158 166 164 124 169 153 153 106 54 31 28 23 19 23 28 33 36 32
32 42 54 56 58 77 95 107 113 112 111 109 124 136 144 149 159 157 154 160 163 150 153 111 115 91 91 74 21 18 33 55 80 81 79 65 52 51
36 51 67 67 72 100 113 119 119 128 157 183 169 161 151 150 148 167 168 183 151 138 79 78 85 74 74 84 94 108 159 129 87 79 67 58 52 47
47 61 78 85 98 108 113 115 126 122 133 140 140 142 144 139 131 137 144 159 137 133 73 77 72 72 114 113 128 139 114 95 83 71 59 48 50 82
55 60 67 76 94 100 105 116 109 112 131 131 127 131 136 133 127 112 87 107 112 92 66 80 78 84 83 75 70 71 89 115 114 107 67 55 61 63
56 60 62 66 80 90 100 82 96 113 118 127 138 144 150 146 130 94 68 60 70 89 72 82 104 113 112 72 30 71 116 122 129 123 157 124 62 59
67 61 58 58 66 85 79 88 124 119 124 132 132 131 121 103 90 69 64 55 52 68 71 84 103 101 109 104 76 44 25 89 120 123 118 134 143 158
66 70 70 82 91 98 106 108 105 104 114 119 116 108 101 102 104 83 80 66 78 87 66 61 58 84 89 104 98 73 81 69 78 99 109 97 115 128
87 88 89 99 105 99 98 99 102 103 111 112 113 107 99 95 90 92 83 86 98 110 116 120 77 69 79 82 82 95 98 88 91 77 68 70 75 97
91 93 91 96 93 93 93 93 93 93 100 101 101 105 101 97 90 92 99 110 95 104 110 123 124 96 79 85 51 87 83 90 96 103 118 109 98 112
90 92 92 89 88 83 81 93 104 101 103 117 117 114 107 97 78 89 106 106 107 113 115 114 138 119 76 74 94 41 92 95 97 125 158 165 142 121
88 86 84 86 89 90 89 98 106 110 120 119 129 125 118 108 92 102 114 123 121 111 111 119 140 146 131 103 70 78 43 109 121 127 127 129 139 52
79 81 88 92 93 94 96 102 117 127 127 131 130 135 140 137 110 117 120 78 78 108 109 118 128 55 103 102 106 107 120 59 73 123 126 121 104 91
83 89 89 93 93 95 99 113 120 122 127 136 133 137 140 155 129 123 128 127 119 118 115 108 98 108 124 108 82 73 66 87 84 54 50 68 135 92
88 94 94 94 98 103 114 127 137 134 147 146 143 138 155 140 142 144 129 124 122 113 105 99 95 96 112 104 33 -5 -26 26 78 83 144 102 42 8

GFSNE_con_3kmhel_051.txt.gz
Helicity
130 146 150 138 147 156 179 200 219 244 215 179 173 161 156 135 154 176 180 213 188 227 231 282 302 208 219 158 101 86 79 65 70 77 50 60 79 71
200 209 186 178 184 188 170 161 171 181 270 192 181 188 176 159 119 205 205 144 190 215 246 166 166 128 91 63 103 72 48 62 64 57 66 60 57 62
135 131 173 165 142 155 181 187 177 186 198 178 156 173 193 185 190 248 272 319 293 185 112 98 91 103 75 65 49 43 74 61 65 64 65 77 76 77
125 142 150 123 121 133 146 155 159 175 182 139 172 134 191 189 185 177 221 192 200 184 130 129 99 101 76 65 65 86 81 71 98 95 80 70 79 89
151 139 119 114 121 129 126 121 119 148 174 162 116 117 103 110 174 168 170 161 122 90 66 55 67 88 99 71 62 90 112 92 71 64 68 83 86 100
143 137 132 128 110 119 135 123 130 161 165 111 79 112 67 108 117 110 91 84 80 79 77 70 81 105 129 147 124 104 93 89 104 109 104 89 87 84
152 145 153 169 135 123 98 76 106 120 89 100 112 103 99 120 113 144 153 130 121 113 111 115 123 114 105 107 98 81 76 87 91 84 81 79 69 62
66 64 67 71 68 97 78 64 74 87 99 105 121 139 147 145 144 145 141 132 119 111 127 131 126 104 114 123 98 101 104 94 69 56 46 44 38 27
30 35 37 42 53 53 74 113 131 147 141 131 151 166 176 168 175 188 179 169 149 140 140 128 133 131 133 132 106 86 52 30 19 16 14 11 14 15
47 40 42 43 45 65 79 101 119 127 134 146 164 168 172 167 188 190 184 176 163 151 164 120 122 152 136 88 28 16 22 27 26 36 46 52 51 41
43 44 48 54 71 90 88 100 112 127 154 185 193 193 182 172 159 189 188 208 177 172 158 131 135 98 86 68 69 63 74 133 113 88 74 70 57 43
51 63 76 74 90 92 92 96 102 105 124 133 133 139 140 141 163 162 166 176 166 182 128 114 104 69 108 84 109 113 115 143 110 83 81 75 60 76
58 68 74 78 86 87 96 88 82 94 106 107 109 119 134 147 159 162 139 152 159 136 92 93 93 86 77 73 75 86 80 71 80 88 71 66 63 67
53 60 60 56 68 76 85 75 76 102 90 96 108 121 133 137 133 130 115 102 98 106 77 93 108 119 113 95 78 95 104 83 87 94 105 92 71 67
50 49 58 61 62 80 73 73 97 88 92 100 106 112 114 112 105 105 102 89 81 85 77 100 118 104 107 110 114 108 69 96 147 157 158 157 175 173
52 65 61 67 79 91 89 86 84 85 91 101 109 109 108 112 116 107 108 95 79 101 84 81 90 100 96 104 102 99 107 96 109 129 138 147 148 155
75 84 77 81 86 84 84 84 87 90 98 102 113 109 113 112 106 96 101 101 105 104 109 142 129 114 108 96 96 103 109 100 88 81 79 71 85 99
89 82 84 87 81 80 84 89 97 93 99 107 113 123 126 124 110 105 113 129 98 104 109 135 150 143 118 108 85 117 100 86 86 89 93 84 73 108
83 83 81 84 85 88 93 104 111 104 113 111 129 143 145 134 100 105 105 129 102 110 117 140 156 166 129 126 118 64 129 106 107 108 123 132 106 116
89 85 83 86 92 99 106 115 111 108 118 123 130 141 147 157 134 124 130 126 125 114 111 123 138 160 169 149 113 126 87 123 132 123 108 104 106 31
82 85 93 98 103 110 111 114 120 123 129 140 151 157 154 164 136 142 132 81 79 114 114 118 136 62 105 106 121 143 126 79 92 136 122 97 71 56
79 90 95 102 108 113 114 123 125 125 139 155 160 165 162 177 153 144 144 136 132 136 133 123 109 138 151 150 124 101 98 93 81 48 48 61 134 124
86 97 106 108 111 114 121 129 136 140 158 169 174 164 176 169 164 163 153 147 141 130 121 111 109 126 148 180 141 131 95 97 97 58 93 91 50 22

GFSNE_con_3kmhel_054.txt.gz
Helicity
254 229 193 182 193 160 152 147 163 146 116 178 158 146 120 109 90 89 113 106 60 38 31 84 203 309 175 149 158 118 103 88 77 79 79 94 95 106
228 233 237 209 206 182 174 176 165 166 165 193 167 144 130 99 102 91 102 75 44 27 106 172 207 182 160 136 99 84 83 67 36 44 65 62 74 66
230 195 177 176 169 160 146 142 162 175 155 143 161 158 124 80 125 121 156 123 111 171 271 223 155 84 37 44 100 90 75 30 45 53 41 57 48 49
161 144 153 148 168 150 130 141 152 146 127 118 146 161 124 105 84 98 119 128 136 209 233 212 196 185 137 96 69 67 88 105 80 43 77 88 94 86
180 182 175 167 164 141 134 124 120 123 116 137 110 99 78 98 70 96 87 109 120 107 89 77 69 52 51 61 77 56 55 96 126 100 87 85 84 82
172 174 170 153 155 142 128 129 109 91 81 89 86 82 84 87 86 87 81 94 106 87 68 64 68 71 101 140 143 147 152 132 99 78 82 88 101 92
141 146 145 152 123 106 73 65 56 48 66 75 82 84 94 100 105 95 95 97 101 103 95 104 112 115 122 126 112 90 80 84 79 75 70 71 85 95
65 61 59 83 80 88 88 102 72 58 76 88 101 114 117 122 126 131 132 135 129 125 127 129 111 104 111 114 93 83 81 82 78 78 78 83 74 69
50 42 56 55 63 73 98 113 104 114 108 101 114 120 123 128 138 142 146 142 135 128 106 93 128 108 124 124 116 108 100 94 87 70 51 42 44 38
49 50 57 58 38 74 82 94 96 105 112 114 123 123 119 122 130 129 128 127 120 121 130 110 88 126 139 125 112 95 68 55 42 36 33 37 45 50
45 39 43 57 78 77 73 84 92 95 106 124 126 122 123 122 104 132 120 142 120 128 138 127 112 122 131 98 86 110 133 87 93 99 81 67 67 54
46 55 64 52 65 66 63 71 79 72 91 91 87 93 96 102 120 110 120 126 120 133 113 109 113 102 121 73 73 76 74 86 104 106 88 60 69 74
54 52 54 68 73 66 71 56 53 74 84 80 80 86 90 99 103 106 100 112 129 126 107 113 114 127 100 80 69 69 74 73 81 65 66 67 60 62
55 54 48 53 46 52 64 54 82 90 78 80 82 76 73 74 82 88 85 93 103 115 88 117 117 135 130 107 97 107 112 103 99 73 89 75 82 73
51 42 55 52 52 64 57 77 87 81 81 82 75 67 68 72 75 85 91 93 89 98 96 125 133 121 113 120 118 120 104 121 145 153 157 158 140 126
44 47 46 50 57 65 72 76 77 78 80 81 78 77 78 93 103 105 113 118 106 124 107 96 105 124 107 98 107 99 118 122 124 133 123 123 124 126
60 78 65 61 63 64 65 68 73 77 87 95 96 93 92 104 104 113 117 114 110 122 119 158 138 114 119 122 131 142 132 121 143 131 99 88 88 101
94 84 73 69 68 67 64 66 78 82 97 104 102 106 108 114 123 126 130 144 131 114 112 135 136 125 116 95 135 141 134 128 105 112 122 99 78 93
93 87 81 76 73 73 75 85 96 95 110 104 116 111 116 125 108 142 146 142 152 137 126 147 151 144 118 113 110 71 130 120 122 121 141 150 125 107
110 103 90 84 85 86 87 97 100 104 115 116 122 127 133 151 151 149 153 173 160 133 117 141 174 169 175 136 104 104 96 138 152 133 113 103 96 32
95 106 99 92 91 95 96 104 115 120 123 129 136 147 154 179 157 168 160 105 106 144 136 140 159 65 111 117 125 145 154 106 115 152 146 94 20 -32
102 110 95 93 95 102 105 113 120 119 128 141 151 162 170 190 175 168 173 171 161 169 168 151 140 156 151 147 138 127 143 126 122 91 90 95 123 97
110 114 105 96 98 110 125 123 125 133 144 151 164 165 184 180 180 179 175 175 170 163 154 143 140 151 148 150 107 125 118 139 160 161 188 126 86 63

GFSNE_con_3kmhel_057.txt.gz
Helicity
219 217 217 247 224 200 176 168 171 154 133 148 122 114 87 73 77 70 76 81 105 80 83 52 93 147 186 86 305 246 214 257 225 115 61 53 47 55
203 210 225 224 211 196 161 153 167 162 154 159 172 114 95 92 109 91 81 106 100 111 30 40 111 259 289 238 308 225 82 75 78 76 44 35 87 73
203 200 206 192 171 164 160 173 168 153 148 159 149 107 98 99 111 84 90 94 109 145 199 262 377 343 247 124 60 90 84 118 83 41 25 90 67 87
170 164 160 142 152 162 165 164 161 167 138 123 106 100 94 65 65 87 77 64 75 91 90 169 171 167 154 155 138 114 89 80 89 104 99 58 78 92
153 155 137 128 145 152 165 161 151 133 124 98 78 66 66 51 49 72 62 75 78 61 46 22 38 51 59 59 58 43 76 78 101 128 131 98 72 64
148 146 142 140 139 133 133 120 96 89 76 59 68 71 62 55 60 70 81 78 80 91 86 82 83 93 101 104 117 142 149 135 122 101 81 66 72 78
116 113 113 82 72 78 68 69 60 55 67 71 79 79 79 80 82 74 74 72 86 95 97 108 114 109 109 112 112 118 107 95 89 77 74 74 69 69
68 70 80 90 96 86 95 101 90 83 78 77 85 92 93 85 86 90 90 88 84 98 83 86 95 107 111 102 86 77 78 82 85 83 85 86 97 98
61 60 67 62 79 80 95 103 97 88 90 77 93 98 97 92 85 82 89 84 82 81 54 71 97 101 115 114 114 109 107 103 104 107 112 108 94 98
57 57 63 55 62 81 81 84 83 98 93 91 97 90 85 78 72 77 78 71 64 69 69 82 95 110 103 90 91 93 75 59 52 46 39 35 36 33
47 45 60 72 78 78 80 84 76 76 81 94 91 85 79 74 66 79 69 70 76 85 88 82 112 129 112 94 76 87 98 113 47 48 65 64 51 57
46 49 56 60 71 76 73 71 80 72 69 68 70 78 82 82 89 67 70 67 73 75 90 83 112 129 132 93 75 61 66 74 82 62 66 79 72 71
50 55 59 59 60 60 67 55 61 63 66 64 67 75 80 83 81 79 76 75 85 87 107 103 127 127 106 95 80 78 59 71 72 66 59 57 68 79
48 50 51 53 53 52 64 52 86 72 68 69 72 75 76 78 80 77 73 76 84 86 84 110 134 127 113 106 106 96 91 80 53 62 80 82 73 69
49 37 47 60 66 72 63 78 73 70 70 70 70 70 74 78 74 73 77 79 81 90 94 118 112 100 106 114 102 91 98 98 90 89 86 85 92 94
47 47 45 55 71 77 76 77 71 69 69 68 69 72 76 82 82 85 89 97 102 129 131 117 108 116 107 102 97 102 90 83 87 90 97 86 82 84
60 64 62 65 72 74 73 72 70 69 71 73 73 74 77 82 86 95 96 107 117 126 132 151 144 107 97 108 116 119 100 86 84 73 70 78 77 81
95 79 67 69 73 72 67 65 66 65 71 76 78 81 80 85 91 100 108 121 127 125 112 120 126 138 132 102 113 104 81 71 67 65 66 68 72 76
92 89 81 79 80 85 77 77 74 72 84 80 82 85 89 95 94 105 114 122 117 112 101 104 117 141 138 127 108 86 112 62 63 68 77 89 103 93
117 108 95 89 86 88 80 80 75 79 87 87 92 96 101 108 112 117 125 126 121 109 95 103 125 155 165 155 138 102 86 98 95 81 92 90 103 50
121 113 104 95 94 96 86 81 82 89 98 102 104 105 111 130 118 127 128 108 107 122 119 116 124 84 131 134 166 137 108 66 81 110 97 79 86 69
142 130 128 114 105 93 84 84 92 102 105 106 105 113 123 144 141 135 140 135 133 140 148 133 109 121 141 182 177 130 80 65 58 40 50 72 150 154
154 156 139 146 110 98 91 92 103 107 109 110 111 116 132 143 147 145 139 139 134 128 122 123 115 121 148 154 129 116 96 89 75 92 110 89 81 71

GFSNE_con_3kmhel_060.txt.gz
Helicity
203 207 208 221 226 212 195 176 191 156 104 119 119 143 101 55 56 56 83 104 90 89 76 46 35 97 119 77 103 232 297 440 344 292 210 202 125 71
159 173 189 177 181 190 199 176 164 147 152 175 155 140 89 64 62 77 97 77 152 145 150 98 86 156 221 173 250 357 371 294 152 141 176 91 62 83
158 155 156 151 149 145 138 140 142 142 138 161 168 140 102 84 80 72 74 95 96 126 118 196 297 322 279 193 165 140 181 170 77 65 71 83 113 132
146 139 135 115 123 136 140 150 142 147 131 134 130 110 80 59 53 47 56 74 77 107 119 146 191 180 152 119 107 71 68 90 133 138 128 140 132 154
137 137 131 126 137 140 148 149 144 131 114 106 95 63 57 68 57 62 75 76 77 84 98 113 111 98 93 98 114 115 103 106 103 120 115 122 114 98
137 141 130 123 114 109 102 94 81 73 72 67 58 69 76 74 70 80 75 79 88 89 93 101 107 107 108 103 114 131 137 140 123 117 101 92 85 73
109 100 107 90 82 72 65 75 75 73 72 73 77 75 79 78 77 67 69 82 96 109 111 108 118 114 110 99 112 116 124 111 103 92 85 78 74 74
73 77 72 73 72 71 85 98 94 80 83 90 85 95 96 88 84 90 88 90 82 88 96 84 93 98 94 101 124 119 119 111 105 98 93 94 91 89
63 62 70 67 72 68 79 82 88 106 120 97 103 108 98 103 100 81 83 77 77 74 58 70 84 80 84 84 94 100 105 105 115 115 109 103 98 98
71 69 62 61 71 73 73 74 75 87 104 103 109 102 98 86 78 74 77 74 61 64 64 66 83 82 77 71 92 99 131 96 71 72 68 64 57 64
56 50 56 64 77 71 78 77 69 70 81 87 85 81 75 69 65 70 78 82 78 80 77 76 93 96 75 78 91 91 97 94 96 59 64 70 64 54
41 44 54 54 66 73 73 71 69 72 70 63 63 60 62 75 77 74 84 76 79 77 93 85 105 113 101 106 90 88 82 79 78 83 82 69 68 83
38 44 52 57 60 66 68 74 76 69 70 62 66 68 70 75 79 84 82 78 73 70 112 92 96 96 101 111 112 103 85 79 76 69 54 49 49 58
42 48 60 55 52 48 59 63 88 71 70 77 78 77 76 76 75 72 71 69 70 67 79 104 105 107 113 122 122 112 109 107 94 77 84 77 60 50
46 51 59 63 60 54 60 79 79 72 76 75 75 76 75 78 74 70 69 72 68 71 79 87 96 99 113 124 114 96 107 117 107 94 92 82 78 85
52 53 57 63 61 65 73 78 74 79 75 74 73 75 76 77 78 84 85 88 86 87 118 111 109 111 114 105 100 93 87 109 104 93 103 100 86 77
68 67 65 69 68 70 74 79 83 80 78 77 79 80 83 87 90 93 91 89 84 90 101 130 130 115 106 109 109 102 88 94 97 89 85 90 91 85
66 68 71 77 76 75 77 80 86 80 80 84 84 87 90 96 100 100 94 92 90 99 113 133 142 144 136 121 119 108 87 90 86 86 90 87 78 80
70 75 84 90 88 90 89 86 82 88 99 91 89 94 101 103 101 98 101 103 103 107 117 137 148 155 156 132 110 120 104 89 101 83 87 89 64 71
94 91 95 102 105 106 107 95 90 92 96 97 100 107 109 107 106 102 106 113 119 119 115 130 146 159 165 149 152 117 142 123 117 105 87 90 75 25
123 110 111 119 128 135 123 124 108 96 100 110 111 113 111 112 104 102 106 100 110 125 122 123 130 106 152 151 189 137 104 62 96 132 103 73 50 46
143 123 130 137 144 154 159 122 108 98 102 108 110 111 110 113 108 107 116 122 125 134 134 119 112 132 146 168 161 122 105 92 73 60 58 74 134 88
149 146 147 158 162 160 146 116 110 97 98 105 105 101 111 118 111 113 117 123 123 127 128 127 116 123 132 142 120 125 93 95 94 78 86 68 53 42

GFSNE_con_3kmhel_063.txt.gz
Helicity
177 175 199 213 201 200 187 197 199 187 148 130 162 145 126 106 99 84 74 69 108 99 65 85 53 48 31 67 126 238 267 193 223 300 498 530 425 280
163 151 170 170 187 180 172 171 165 165 163 193 190 141 97 71 62 65 61 82 111 107 91 90 160 152 176 206 271 278 250 248 270 366 389 351 291 134
150 151 152 155 159 160 162 162 157 140 129 154 142 127 110 110 78 51 63 66 60 97 79 100 151 196 203 239 243 227 194 124 86 23 -8 64 32 148
143 149 153 142 139 134 124 138 138 153 159 141 168 128 92 64 32 46 46 68 67 74 79 89 112 136 147 153 142 121 114 110 77 41 67 82 72 125
160 156 142 130 136 137 144 142 138 130 122 128 104 76 45 38 67 70 69 77 69 61 68 76 92 108 103 95 102 115 115 99 82 84 90 96 103 110
167 160 149 148 134 127 115 86 66 56 60 72 60 51 61 71 72 82 88 76 88 94 79 75 84 88 100 103 99 97 108 111 106 104 107 102 109 102
131 135 152 134 128 104 87 84 89 93 87 74 70 68 71 68 88 84 90 92 88 107 106 102 98 106 84 86 96 111 124 119 116 104 95 99 99 98
110 99 88 87 76 75 90 115 111 103 101 109 88 85 101 83 86 109 99 105 108 77 98 95 96 99 101 104 110 91 89 98 108 109 114 115 111 104
79 77 70 58 61 55 72 83 113 125 139 110 119 149 146 135 103 96 106 89 87 82 77 84 93 88 83 79 95 82 81 86 89 101 110 108 109 108
64 54 47 40 54 65 76 75 88 106 124 123 143 157 151 129 103 91 83 76 71 73 81 68 77 73 70 66 95 80 91 97 102 80 85 87 91 86
41 36 44 42 61 77 73 68 68 90 97 106 111 116 103 94 83 83 83 86 78 86 88 81 76 78 64 66 82 74 78 84 93 103 76 94 105 96
44 50 52 72 63 54 59 65 73 91 88 82 85 86 80 93 85 74 83 79 80 81 102 91 96 94 88 85 88 83 93 84 88 76 81 87 83 93
47 42 53 53 55 53 48 61 84 85 84 76 72 77 84 87 85 94 90 85 77 78 104 101 92 89 92 92 96 96 103 102 99 97 84 66 58 66
50 52 63 55 55 41 39 46 61 77 76 81 87 79 91 104 95 89 92 79 79 76 82 119 102 109 105 103 106 129 134 120 114 115 109 89 74 60
54 62 68 56 50 43 40 46 63 62 79 87 84 96 105 113 106 86 77 67 73 77 81 107 103 98 112 120 123 122 115 138 93 100 116 120 110 101
53 57 51 50 48 55 72 64 65 64 80 87 95 102 110 115 98 94 100 97 97 100 94 133 114 110 110 119 122 113 136 134 128 130 121 125 121 118
73 81 76 69 70 76 77 71 79 85 93 92 103 105 103 106 107 105 109 110 109 110 109 132 131 139 133 126 119 134 137 121 116 116 129 107 100 111
93 88 77 78 80 84 90 95 100 95 111 108 115 115 115 123 118 117 122 119 114 111 118 128 156 166 157 124 125 139 130 120 111 107 98 115 99 94
94 92 87 90 105 112 112 119 122 123 134 135 130 125 128 127 113 126 125 121 118 121 123 137 164 191 180 169 165 100 172 140 129 121 140 142 128 107
120 102 102 119 120 130 138 144 144 152 146 138 133 133 141 140 132 128 129 126 125 124 122 146 169 191 186 188 198 146 138 143 151 139 127 122 120 57
138 127 137 140 153 158 152 156 164 174 149 155 150 140 144 142 130 127 122 86 93 128 125 132 146 91 170 174 203 183 144 76 94 153 156 131 99 76
172 171 167 171 179 166 164 170 179 179 155 152 144 134 135 137 131 124 126 126 127 133 129 122 128 145 162 185 170 139 121 116 90 56 51 88 136 142
200 188 204 198 199 186 190 193 182 187 158 151 141 136 135 131 124 128 127 125 137 136 129 134 136 148 155 153 125 140 114 126 131 125 130 80 45 53

GFSNE_con_3kmhel_066.txt.gz
Helicity
152 144 154 168 173 176 162 173 170 209 157 229 223 202 160 131 148 121 113 103 88 77 76 93 132 69 45 36 76 107 125 162 167 172 163 168 215 319
152 134 142 144 147 158 166 169 143 187 192 214 206 153 147 114 135 98 79 97 107 108 73 94 98 141 150 167 164 134 145 188 219 211 255 303 338 353
139 148 140 139 145 141 153 168 157 151 161 183 171 161 142 134 89 69 63 67 54 55 66 66 92 117 128 153 169 176 176 169 161 127 141 109 111 181
134 153 159 162 166 167 143 170 170 167 154 149 136 123 115 87 55 37 38 44 53 54 56 79 91 101 120 122 130 132 126 123 113 82 47 49 12 -20
204 189 193 177 183 172 174 161 142 139 135 121 107 74 64 36 37 54 55 53 47 59 69 75 87 94 104 107 112 123 124 121 116 110 81 59 15 11
203 198 207 184 150 124 124 112 96 77 77 93 82 67 53 58 65 96 107 90 90 87 88 55 79 89 99 99 108 112 111 110 100 97 104 109 112 116
168 158 143 152 159 135 97 91 81 88 101 88 93 82 76 73 92 98 101 91 108 106 89 90 80 84 76 92 109 108 104 101 88 71 65 68 81 97
160 136 133 131 96 83 99 101 102 79 77 83 89 75 100 86 108 102 87 103 112 89 80 77 79 78 77 72 76 73 73 71 71 70 68 67 70 75
134 124 99 68 66 64 72 84 95 110 100 90 106 111 123 101 98 98 96 86 83 66 71 77 78 76 69 65 73 65 67 82 76 64 71 80 77 73
103 83 51 41 43 57 60 68 80 92 110 125 127 129 124 116 105 78 71 68 69 78 77 81 69 64 56 57 69 76 72 80 84 87 67 71 76 78
56 44 30 35 39 66 68 57 62 68 84 95 90 91 91 86 77 85 87 95 87 87 84 77 65 65 59 60 59 58 58 60 73 83 100 98 101 97
48 56 56 66 51 49 68 65 70 68 79 81 65 69 75 76 78 82 83 95 89 87 71 85 80 79 78 69 76 74 74 71 88 96 88 77 83 100
49 47 46 50 49 43 50 66 64 69 65 63 60 71 74 74 80 95 97 96 100 88 83 87 91 79 88 84 86 79 83 87 94 92 89 94 95 86
54 55 55 46 43 41 40 34 57 70 64 61 70 73 78 87 96 107 100 93 90 87 78 94 99 112 108 96 90 90 84 82 95 108 111 103 94 77
64 52 50 44 42 48 32 40 53 69 60 71 74 74 85 93 107 105 85 80 73 79 77 101 121 108 111 120 102 96 98 131 118 134 145 136 128 120
58 63 53 51 43 41 49 55 74 68 72 80 78 84 95 118 101 95 100 100 110 102 83 106 121 132 118 100 91 102 145 133 130 132 134 125 134 123
84 86 83 76 71 66 64 60 65 67 87 89 88 92 88 99 108 106 112 116 117 120 115 115 119 131 144 156 122 129 132 141 160 147 158 132 117 104
106 113 99 89 82 74 74 76 84 78 104 116 121 115 102 114 126 125 128 136 125 122 111 101 119 126 138 119 136 134 125 151 150 145 129 125 109 112
116 115 102 97 100 107 98 98 110 120 132 144 152 142 125 132 111 120 123 127 117 118 117 114 122 156 151 125 141 87 136 159 169 136 159 158 141 105
166 173 156 171 139 108 112 117 126 135 155 165 170 154 130 142 137 127 133 135 123 120 112 125 144 166 191 169 180 136 73 143 168 135 125 132 135 61
151 155 165 163 135 129 127 137 151 159 162 183 191 169 147 159 144 143 133 76 83 122 107 120 128 82 139 153 177 168 159 92 89 133 155 145 118 103
183 180 186 177 178 168 173 189 194 182 204 185 195 179 164 160 148 149 137 124 115 116 114 113 122 134 141 150 140 111 106 112 115 86 63 69 144 164
214 213 220 222 210 204 236 207 197 237 195 200 171 158 149 151 151 131 115 117 119 119 117 122 123 131 136 141 113 123 106 118 133 133 134 104 81 73

GFSNE_con_3kmhel_069.txt.gz
Helicity
157 147 145 148 156 148 163 165 172 153 136 219 230 191 188 173 163 128 106 104 120 99 93 92 139 178 167 85 96 81 79 98 84 65 50 39 44 17
163 155 143 141 143 154 165 144 149 159 159 235 278 202 193 164 142 102 120 111 115 123 93 78 83 133 159 177 148 140 165 161 181 207 228 242 233 210
160 155 155 146 140 146 150 156 165 158 150 163 193 191 178 158 126 106 90 81 80 63 55 60 76 108 129 140 156 180 179 163 175 174 160 182 176 189
148 158 168 172 177 163 155 157 140 136 134 157 184 170 158 121 96 69 58 44 56 50 57 79 74 94 97 123 144 146 139 129 135 150 141 111 92 71
206 191 175 175 168 166 165 156 135 123 135 137 139 124 95 68 43 47 51 64 56 67 75 92 92 102 123 118 122 138 140 135 123 110 117 111 90 95
228 212 204 183 163 158 150 130 107 103 108 105 97 86 77 47 56 81 92 92 80 84 92 103 103 102 120 117 121 123 132 126 117 101 78 69 76 55
206 189 177 169 177 144 118 115 104 90 72 83 86 91 78 76 72 76 84 86 80 93 86 82 80 83 93 98 102 101 93 87 88 88 85 78 79 82
195 186 181 171 148 128 119 100 74 63 71 81 83 84 86 94 88 75 84 87 70 78 90 63 80 72 68 63 69 73 70 73 69 70 74 72 70 74
174 155 142 120 103 93 77 86 89 98 88 73 77 72 81 80 78 81 84 80 74 61 76 69 74 72 64 68 62 68 66 71 84 71 62 67 73 71
129 113 109 80 56 53 72 74 75 79 80 86 88 86 87 84 76 74 72 68 62 73 79 86 79 77 65 63 49 65 69 72 79 89 78 69 68 69
93 83 69 48 50 48 61 64 62 63 63 69 72 78 79 72 75 91 90 94 81 95 89 90 88 87 75 76 63 62 66 68 75 82 83 87 93 95
64 52 48 34 40 43 57 60 61 46 54 70 73 70 77 74 90 89 89 96 86 107 82 100 95 103 97 77 87 81 81 93 94 94 94 92 84 96
55 48 47 35 34 37 50 57 51 58 57 60 59 57 60 75 82 87 86 89 96 86 79 88 96 97 98 94 89 86 111 101 86 85 84 90 91 97
50 54 44 33 38 36 46 37 47 67 66 63 62 56 60 72 83 78 78 82 84 83 80 96 93 101 104 107 90 96 81 78 88 96 97 105 107 88
60 48 40 40 37 44 41 41 48 70 65 70 59 57 63 73 104 98 86 83 82 82 81 88 108 107 118 108 108 116 105 109 99 131 120 98 106 110
49 55 56 57 56 54 57 58 71 68 74 74 69 65 81 107 95 95 102 105 112 99 79 86 102 128 123 116 105 91 97 101 105 120 125 113 123 126
90 92 88 90 84 77 71 64 63 70 81 88 84 80 88 105 100 102 109 116 124 135 140 125 113 123 126 133 104 114 116 125 150 152 147 126 110 130
112 109 97 88 81 73 72 70 73 72 88 88 94 95 110 122 122 121 124 133 135 139 133 138 133 117 111 89 89 111 105 118 149 154 150 143 101 120
105 123 132 125 126 143 137 143 169 124 119 118 119 126 139 147 126 128 123 132 130 128 128 127 130 135 117 96 87 66 127 146 147 138 156 162 134 107
155 171 162 174 175 148 140 162 150 120 125 126 140 152 163 181 170 146 129 137 128 126 118 127 127 127 133 126 118 124 93 136 152 128 132 138 128 58
130 141 145 145 140 148 165 170 157 154 167 180 181 188 195 198 190 165 135 96 101 138 118 122 106 65 123 133 151 118 103 85 99 144 152 142 116 108
150 156 160 159 167 175 168 161 159 168 189 179 181 237 207 218 194 162 153 146 134 123 100 102 106 120 127 137 131 112 98 110 114 82 54 72 155 163
186 188 189 194 190 193 201 194 189 188 182 187 204 186 201 179 148 141 149 136 120 109 108 110 116 135 139 145 108 118 104 114 134 139 131 95 75 56

GFSNE_con_3kmhel_072.txt.gz
Helicity
145 153 163 151 148 156 156 154 154 186 164 219 212 215 207 213 181 139 125 107 118 89 77 97 110 135 207 187 167 123 98 130 118 103 35 65 58 34
153 150 147 144 138 140 151 149 160 170 166 197 213 233 235 222 160 132 110 108 120 90 82 81 76 83 120 146 163 164 190 199 246 261 250 212 241 242
133 134 131 144 140 149 152 163 161 161 168 208 208 199 196 158 127 111 85 91 80 83 68 59 56 72 90 97 111 130 154 159 169 195 210 213 245 247
122 133 139 158 164 167 157 166 153 155 177 177 187 169 135 126 112 102 91 80 80 68 60 60 50 73 71 79 111 119 126 128 149 180 187 168 176 179
192 172 170 169 162 151 151 141 136 137 153 154 169 168 148 110 76 67 70 78 74 82 82 86 80 89 98 85 102 108 127 138 144 152 146 133 125 115
197 205 197 192 162 153 153 142 148 138 127 138 155 145 110 84 67 78 80 98 90 87 81 100 105 105 106 93 116 121 125 121 125 132 127 109 99 81
188 187 178 178 176 166 145 138 127 125 127 126 115 102 99 95 79 88 91 95 86 96 77 81 85 90 106 92 99 91 93 95 102 109 104 89 76 82
192 204 203 194 160 142 146 121 96 90 94 86 87 91 88 91 92 89 97 97 79 89 90 74 89 86 85 74 79 82 84 92 88 83 81 84 80 78
177 172 177 177 151 136 124 154 111 85 70 68 79 76 83 76 93 94 94 95 86 81 79 84 95 85 77 78 74 85 88 89 100 93 76 75 82 82
170 138 138 127 109 90 85 89 69 77 84 82 85 81 86 85 83 74 86 91 88 84 90 104 101 83 79 73 56 79 92 95 101 106 96 84 84 86
123 102 94 86 63 55 59 60 55 77 72 77 77 86 79 70 65 88 91 101 87 92 104 106 102 91 84 82 78 96 97 93 88 92 93 90 92 95
104 67 41 52 38 42 50 53 60 54 63 72 78 85 89 72 64 66 86 90 86 109 93 121 113 111 111 87 90 105 97 114 112 111 109 98 89 89
80 54 43 32 30 37 51 59 50 63 50 59 66 74 74 68 68 73 67 78 93 94 92 108 112 111 112 110 100 100 113 114 106 98 111 101 93 82
61 42 47 22 35 38 52 41 46 64 71 71 75 76 76 69 63 68 69 70 77 88 90 103 107 112 116 121 111 124 117 95 102 110 102 122 115 103
48 40 32 30 39 43 41 37 37 81 77 79 73 78 76 72 93 89 79 73 76 84 89 101 114 121 124 115 113 125 127 134 99 123 149 93 86 89
39 43 46 47 54 57 52 54 77 80 85 87 88 81 83 96 86 88 93 97 112 109 98 97 111 141 138 132 137 133 134 139 133 119 88 87 97 101
63 75 92 93 79 75 73 67 71 74 78 82 98 117 109 99 100 107 111 120 120 132 132 128 110 113 115 135 123 127 136 136 135 136 127 101 99 127
95 110 89 97 100 98 90 81 93 93 112 139 160 146 120 124 144 124 124 136 132 133 140 154 152 137 128 102 89 111 102 95 103 118 124 126 101 116
102 123 108 111 105 126 143 151 145 117 128 159 123 93 118 126 137 155 152 152 142 138 128 135 151 167 163 140 113 64 118 107 127 123 138 163 141 102
102 113 117 133 136 127 133 137 147 135 142 133 96 133 147 157 173 179 191 180 172 166 142 146 152 159 171 142 100 112 90 138 154 141 130 145 127 58
136 148 175 169 152 144 125 130 138 146 142 140 149 164 169 189 179 208 193 148 149 155 144 146 151 82 136 131 108 112 114 45 73 142 145 141 112 116
140 142 146 147 146 147 143 144 155 157 168 172 166 180 177 194 192 203 189 178 158 138 133 136 126 120 132 124 104 98 99 98 85 69 49 67 143 146
120 121 125 140 144 156 166 178 174 176 173 177 184 190 206 218 195 182 174 159 141 131 124 113 120 124 113 132 99 107 103 107 125 144 129 97 63 45

GFSNE_con_3kmhel_075.txt.gz
Helicity
106 112 144 162 160 148 138 140 166 160 149 193 193 204 223 187 186 155 192 155 99 103 109 94 108 120 177 231 185 154 147 137 85 59 48 22 10 19
130 148 156 147 145 141 134 146 149 155 160 183 204 203 194 203 183 164 167 105 87 90 107 97 105 108 111 131 122 116 112 118 126 145 144 129 62 125
153 162 152 144 136 142 146 158 159 170 155 215 185 203 219 195 169 127 100 82 80 105 99 87 65 77 97 121 93 93 112 140 133 146 198 242 229 197
134 143 131 151 157 176 160 155 155 163 170 177 188 204 193 175 129 95 66 78 88 95 82 73 68 89 99 103 96 107 126 136 151 174 175 181 181 193
155 152 159 153 159 177 175 165 157 143 154 152 173 199 200 149 122 93 75 90 94 96 89 89 87 97 105 95 89 101 119 136 140 146 173 181 194 202
170 178 177 171 164 165 171 167 163 147 142 160 180 187 170 144 120 72 66 93 87 90 93 104 110 118 114 101 104 113 124 122 117 129 141 134 138 145
152 159 160 161 161 165 166 158 149 150 150 155 162 156 146 139 98 68 88 96 92 89 87 94 91 100 120 113 95 96 99 107 103 103 119 121 107 91
153 168 190 192 181 173 155 141 129 137 120 113 126 132 118 89 87 90 99 96 82 95 94 86 96 94 95 84 71 81 83 108 110 93 101 104 95 87
156 163 169 182 178 188 176 166 153 133 125 87 84 66 73 74 99 103 95 92 86 83 85 78 93 87 86 82 77 78 90 100 114 107 89 85 88 86
162 155 153 138 139 132 123 118 118 108 109 88 83 68 75 94 101 88 81 99 95 91 84 76 85 81 84 73 73 77 90 99 105 108 98 86 88 97
134 136 126 113 87 83 90 84 77 74 73 85 99 98 81 82 83 104 101 103 91 88 85 87 88 86 84 83 98 112 109 106 101 100 95 92 96 102
127 122 92 87 58 58 54 51 47 47 52 64 102 105 95 82 68 78 85 100 105 103 86 98 100 104 95 92 95 104 108 121 120 117 105 103 103 99
111 109 84 48 30 38 40 35 33 53 46 70 70 76 75 77 79 81 84 92 100 85 83 101 108 110 107 101 96 101 111 111 110 107 119 110 109 96
116 87 65 37 25 38 36 32 48 71 73 76 75 71 78 67 58 70 78 83 87 89 90 98 112 115 113 113 108 123 119 106 104 111 111 126 135 110
96 65 44 29 39 19 28 41 43 79 71 67 65 76 74 61 77 78 80 82 77 73 83 98 106 112 113 108 113 120 132 137 122 116 129 123 92 97
69 56 44 32 44 62 65 54 69 72 77 78 80 76 83 88 92 86 127 131 99 115 96 101 103 116 110 112 125 119 143 159 158 148 128 86 82 85
103 78 65 69 73 79 74 66 68 76 88 94 97 97 104 141 173 178 153 126 120 140 120 111 97 92 100 124 118 130 141 149 153 160 130 108 95 100
104 99 87 83 81 78 84 79 96 88 111 121 118 127 141 131 130 142 145 139 138 148 148 133 123 120 107 94 81 132 128 117 139 133 129 124 91 91
75 79 82 92 97 104 114 128 120 136 176 170 131 119 133 127 101 133 138 145 146 158 154 153 144 135 128 125 123 56 132 127 138 138 123 113 100 85
97 113 108 109 117 121 129 125 136 143 131 135 144 144 142 142 159 153 162 163 165 177 172 171 158 154 166 137 118 129 86 153 151 137 131 114 99 40
111 117 125 133 146 169 153 136 127 128 145 161 158 143 154 187 162 157 157 136 153 197 161 164 155 96 146 164 136 124 112 43 67 118 118 102 90 105
142 117 135 157 134 126 127 128 143 141 156 172 165 171 179 195 180 172 173 179 175 180 157 157 157 158 167 160 124 104 100 87 48 37 34 60 130 126
148 138 106 128 127 136 148 145 154 170 184 183 184 182 196 198 188 185 182 187 181 169 163 149 144 146 133 132 95 95 78 80 89 109 123 73 41 22

GFSNE_con_3kmhel_078.txt.gz
Helicity
98 94 91 87 120 142 149 152 138 125 115 154 171 174 186 186 184 163 164 174 144 134 79 74 96 102 144 196 185 169 173 194 195 101 37 11 5 18
121 121 123 128 138 145 138 139 146 145 151 183 170 187 182 179 182 178 165 139 150 87 61 76 121 148 150 134 120 126 152 147 143 126 121 73 37 -1
140 136 124 139 139 144 143 148 143 163 154 189 194 196 207 190 170 185 161 153 73 9 70 95 88 101 95 115 101 101 114 127 159 158 198 252 183 151
143 133 113 128 125 149 159 146 149 165 172 157 175 180 188 204 184 154 143 103 65 76 107 97 85 95 90 104 109 100 117 119 148 157 174 233 260 232
136 141 137 144 142 146 154 165 169 171 174 177 172 173 174 188 177 168 127 99 73 128 98 86 91 93 92 88 97 99 128 126 144 163 178 179 206 210
137 136 136 141 134 136 142 144 158 168 177 180 171 172 183 183 174 145 113 89 87 81 85 91 101 108 83 100 108 103 110 113 127 142 155 182 175 159
114 128 138 140 139 142 152 152 161 167 175 176 182 175 173 167 138 112 92 78 79 85 74 84 90 91 97 97 92 97 104 108 104 97 108 119 135 131
87 131 158 169 163 156 155 161 157 159 157 161 169 150 143 136 136 89 77 82 63 81 85 82 91 85 86 87 75 82 79 94 98 93 103 109 120 121
84 134 148 159 167 182 207 218 207 186 156 121 121 108 98 69 95 79 73 76 80 71 72 78 89 83 81 82 86 74 80 89 99 96 101 101 99 99
106 131 137 126 126 145 166 170 166 139 123 100 86 70 68 45 86 81 75 88 90 76 73 71 84 80 81 76 78 62 78 90 91 101 98 96 92 100
113 126 123 119 112 122 141 132 122 107 84 75 75 75 77 68 81 109 99 90 72 63 72 76 78 82 83 75 91 111 94 90 89 95 96 90 89 98
113 118 111 128 103 98 115 92 91 56 56 55 80 80 86 89 77 79 75 71 76 75 63 79 79 92 86 75 76 82 88 104 110 107 95 92 88 90
114 125 120 96 89 73 77 53 49 51 35 45 59 58 71 66 74 63 50 66 77 63 46 74 71 76 76 72 72 85 88 89 90 89 92 89 85 95
131 129 108 89 55 44 50 24 31 49 64 60 47 29 48 55 52 61 61 64 64 58 59 69 77 75 101 95 80 95 91 84 81 89 97 100 114 104
159 134 106 76 50 36 42 47 36 71 63 65 57 56 63 69 96 94 88 82 70 77 98 106 100 112 107 82 87 91 97 99 90 97 97 107 108 98
145 153 116 82 54 49 53 45 69 66 70 71 72 66 82 92 97 100 111 100 92 85 109 106 113 113 98 75 90 92 101 107 105 109 115 94 83 94
211 198 139 114 93 78 77 72 82 77 79 77 79 94 105 119 121 131 141 142 105 107 117 116 113 111 111 118 116 113 110 117 129 135 110 91 98 112
199 168 112 104 84 70 68 76 86 80 94 101 101 104 123 132 122 131 142 125 102 106 110 111 121 127 112 84 63 91 96 111 131 139 141 136 105 124
146 125 98 99 84 91 102 103 108 106 115 112 117 149 173 125 101 119 120 118 103 110 117 136 147 146 133 126 109 40 119 121 131 132 126 133 133 108
135 116 74 86 95 101 104 109 118 118 113 115 146 141 125 144 154 144 146 152 146 144 146 159 159 161 163 115 113 128 51 141 151 147 143 129 104 55
131 155 152 121 106 119 122 117 121 149 149 144 127 144 145 172 149 153 158 119 126 157 141 142 162 115 165 169 152 139 116 43 84 126 121 109 88 75
138 137 199 172 151 127 121 132 147 122 123 135 138 154 166 188 168 164 169 163 156 181 164 173 180 184 194 172 141 127 109 109 71 43 28 71 115 85
132 162 211 211 171 140 128 114 121 140 148 151 172 175 194 193 170 174 177 177 188 189 189 174 174 177 174 161 118 112 94 90 96 87 100 57 31 18

GFSNE_con_3kmhel_081.txt.gz
Helicity
100 106 117 121 122 130 129 128 109 115 104 88 96 113 123 154 179 172 169 165 153 138 122 110 60 82 100 128 160 159 160 156 149 147 34 19 29 55
141 122 121 132 138 148 149 156 148 130 151 166 131 137 130 149 167 178 169 164 153 129 113 82 71 114 141 166 144 126 129 122 153 146 186 59 39 49
154 146 121 121 136 139 156 155 144 149 137 164 158 161 159 168 174 171 141 144 134 129 91 19 59 104 132 133 138 128 118 132 137 166 165 158 161 97
181 151 137 146 135 149 152 139 141 152 161 151 156 156 155 160 175 161 156 139 131 97 18 78 99 122 93 92 96 104 101 93 108 118 146 192 243 281
167 153 152 151 153 158 155 151 149 163 161 163 159 165 166 168 179 176 170 159 120 96 57 122 105 95 69 72 89 99 104 103 99 108 117 157 207 255
149 154 154 158 162 161 154 150 156 157 166 171 176 170 165 162 180 171 153 130 81 67 95 96 88 83 64 83 89 92 93 92 97 108 137 159 154 164
128 141 164 179 171 166 160 154 160 164 177 183 186 175 162 164 155 144 142 110 75 76 56 58 61 60 68 76 77 86 89 91 87 90 93 115 141 143
73 92 126 147 160 166 171 167 162 160 162 176 171 169 149 141 148 136 121 94 62 66 67 59 66 65 69 74 71 79 75 84 94 95 89 88 101 101
66 63 109 144 171 186 205 207 206 191 162 139 144 131 122 108 118 103 83 71 63 66 64 60 69 72 74 74 90 68 72 85 97 87 87 91 98 102
68 60 104 125 140 159 158 170 173 163 135 110 92 95 84 70 67 62 63 79 64 73 71 58 62 75 75 73 82 59 72 80 84 88 82 83 88 95
89 84 106 123 116 133 156 170 152 143 117 99 88 82 75 66 68 80 82 86 50 58 58 57 57 65 67 64 86 105 80 81 70 78 77 80 88 99
91 96 95 113 108 107 141 135 127 103 77 68 62 63 64 54 57 52 61 57 68 51 49 36 56 58 62 62 63 62 71 84 85 80 79 84 78 76
102 111 111 92 98 101 130 113 83 69 48 65 62 56 52 58 61 58 55 67 59 62 45 56 60 56 70 69 48 46 56 62 66 74 81 83 80 84
111 127 125 94 111 105 134 83 62 59 67 51 63 71 70 66 56 61 57 61 65 70 69 70 75 93 118 106 112 88 62 66 74 75 79 81 88 93
134 132 125 116 122 112 112 71 50 94 55 52 50 63 64 62 65 69 87 87 83 75 72 68 72 97 104 97 97 106 99 75 75 75 73 74 82 94
136 151 156 146 135 147 105 72 88 56 42 47 54 73 76 69 63 65 78 84 89 84 87 88 102 112 105 88 94 104 94 92 79 75 83 77 75 80
183 215 204 199 161 153 116 101 88 69 60 69 78 80 74 78 85 86 99 110 97 97 91 97 105 98 93 98 89 80 68 72 70 76 82 80 83 85
252 219 196 164 137 131 110 85 81 72 74 73 76 80 99 101 96 111 112 68 63 80 75 79 85 83 77 79 73 85 80 81 86 84 90 95 86 102
233 204 183 147 136 126 110 85 77 79 96 82 91 104 94 102 103 110 85 75 72 75 78 96 99 106 107 110 118 63 102 111 118 106 100 100 99 97
221 188 158 119 139 125 93 89 94 98 86 86 103 97 101 116 109 79 91 95 84 100 111 116 108 118 126 118 123 124 58 108 112 101 101 103 85 51
190 168 155 109 149 142 99 100 94 93 94 115 110 117 122 119 87 93 102 92 96 113 101 100 111 114 147 151 121 115 108 55 80 98 108 96 88 83
166 161 157 138 171 163 144 125 116 97 128 109 123 126 113 127 120 122 116 114 115 116 114 125 147 186 178 150 114 110 109 102 80 54 41 61 92 95
154 152 152 131 179 191 186 179 149 111 104 120 119 120 136 153 134 127 126 132 130 133 133 138 153 164 142 136 103 90 90 87 80 79 79 49 21 21

GFSNE_con_3kmhel_084.txt.gz
Helicity
109 109 89 97 98 92 102 111 119 104 92 115 106 97 117 117 138 144 159 190 177 180 161 144 106 75 109 120 121 129 128 134 153 153 154 36 24 30
91 78 89 115 113 120 119 121 137 129 155 159 152 131 119 122 129 137 171 175 178 168 151 111 82 103 122 150 168 158 136 123 126 125 132 145 45 15
122 116 123 148 140 138 139 154 162 159 157 191 191 152 126 129 146 166 158 155 159 142 131 101 84 88 121 162 145 132 126 115 117 128 174 165 150 58
145 141 143 160 140 142 146 141 153 159 167 156 175 158 146 151 158 156 168 168 142 125 106 103 72 47 102 133 131 111 104 95 96 90 133 165 218 198
173 159 161 152 144 156 163 165 170 180 175 189 181 173 173 168 176 176 160 155 148 141 128 77 51 84 110 105 90 99 92 91 84 91 105 131 175 287
192 188 172 155 145 151 168 166 184 189 188 186 192 185 179 176 174 175 171 157 147 116 91 59 83 104 92 80 66 79 75 81 90 92 104 124 158 176
172 157 149 162 205 190 184 183 181 186 196 197 201 196 183 174 160 155 160 153 123 93 50 51 73 55 58 57 47 65 69 77 85 88 99 125 143 164
157 130 121 130 145 167 187 194 182 166 165 193 188 170 144 147 157 155 161 141 109 69 55 64 69 54 54 56 65 64 65 71 81 83 87 92 118 133
143 118 100 125 148 140 150 155 168 173 157 139 137 135 135 127 142 132 120 115 93 79 48 41 50 56 61 62 76 67 65 75 84 87 89 88 86 87
114 99 77 97 110 122 127 125 119 140 154 145 129 127 119 111 94 74 58 55 61 53 58 41 60 58 61 62 65 59 60 67 79 83 84 89 91 88
105 86 69 75 83 98 122 139 141 151 163 160 150 130 101 87 66 60 66 55 44 45 58 66 52 60 54 51 65 66 61 65 68 72 80 87 87 91
98 85 68 79 84 99 120 115 130 130 133 137 128 107 81 75 66 53 51 42 56 47 55 60 50 53 51 52 51 58 61 82 89 74 75 84 82 79
107 94 95 73 92 92 98 114 124 136 118 109 85 77 66 63 59 66 64 60 73 53 52 57 61 62 64 67 55 57 62 57 50 51 55 65 71 78
96 93 98 90 107 102 114 124 130 127 105 92 84 80 55 47 50 59 73 89 78 66 62 75 77 73 70 68 75 96 79 67 59 84 82 76 74 76
107 102 113 111 118 125 121 129 120 120 100 99 90 70 71 69 87 79 80 75 75 73 74 77 71 72 75 89 103 110 101 88 89 86 74 71 71 76
129 120 120 138 148 146 148 141 119 105 97 89 94 75 97 84 67 70 86 86 86 92 85 74 72 82 91 94 101 93 94 99 91 81 74 74 68 64
171 177 173 173 179 176 160 148 134 106 92 97 75 78 84 89 86 73 86 96 94 105 102 84 87 99 93 91 84 82 83 85 79 75 73 69 72 71
241 211 186 196 201 173 180 153 132 97 90 87 86 91 105 104 96 96 112 104 93 93 72 75 69 59 55 50 65 83 93 92 90 77 72 74 77 76
201 195 190 191 183 174 185 153 139 121 116 99 102 98 109 106 103 119 110 100 89 77 61 72 70 76 82 84 105 65 105 114 108 97 90 85 88 94
179 181 186 191 186 169 168 150 156 149 100 94 100 108 118 124 131 116 103 86 81 78 83 88 94 101 89 103 119 121 82 117 113 101 99 93 85 55
164 201 181 185 191 171 140 154 162 156 118 119 118 127 125 137 139 122 97 81 86 101 101 94 95 94 125 129 102 94 112 82 70 108 119 115 101 101
167 187 174 179 155 154 150 147 153 141 105 125 133 136 147 159 136 114 102 110 111 107 95 114 143 138 127 111 87 83 95 102 106 73 60 80 112 107
137 151 155 162 153 163 169 163 158 140 132 142 146 157 166 138 110 114 124 131 130 115 114 120 134 137 114 105 87 80 81 88 93 89 88 57 33 23

GFSNE_con_3kmhel_087.txt.gz
Helicity
117 151 162 171 162 137 132 140 143 130 95 104 169 175 166 134 147 157 168 186 198 200 194 164 153 140 126 108 115 127 126 105 105 113 131 121 110 39
179 140 134 118 90 97 107 124 125 134 154 179 222 201 160 142 142 154 177 191 202 201 178 167 163 113 112 106 152 169 160 137 96 89 100 113 154 116
111 109 105 107 107 107 132 155 159 157 144 201 249 214 166 152 150 161 165 173 183 167 152 156 118 108 126 123 162 152 137 132 112 110 93 118 121 154
151 150 140 136 116 133 146 145 136 135 152 147 208 181 183 177 165 165 170 171 162 138 138 125 102 119 99 100 119 111 117 105 103 115 113 137 202 258
194 178 179 168 152 171 183 166 148 154 173 183 180 209 188 181 187 178 166 160 165 157 151 140 111 71 52 91 115 109 100 86 87 96 84 85 139 294
235 200 185 181 163 173 167 155 168 168 148 152 161 223 198 188 189 175 168 169 168 158 148 140 96 55 83 87 84 74 71 72 72 90 77 70 73 161
206 201 207 187 234 243 200 150 177 180 172 186 200 214 196 192 177 174 167 172 146 142 124 102 70 59 77 56 38 51 52 62 65 72 78 81 81 111
180 181 197 197 187 190 195 201 174 147 168 200 196 184 164 163 174 168 177 174 153 117 112 74 103 79 70 57 61 42 46 55 61 77 84 89 98 112
191 185 170 144 135 143 147 139 147 153 175 161 148 141 150 164 171 164 162 161 150 108 72 85 78 53 72 60 48 41 54 63 74 76 84 89 95 102
210 181 147 137 113 114 134 148 125 112 124 129 117 132 155 169 151 132 129 122 116 74 65 71 47 34 42 41 48 39 58 63 66 66 77 84 90 93
149 121 112 94 80 93 128 114 93 123 142 156 169 174 157 132 122 124 132 131 99 67 49 61 59 71 44 41 55 42 58 53 58 68 76 71 81 86
111 100 78 83 73 75 115 107 100 121 139 164 173 161 138 135 126 103 95 96 99 80 53 82 68 55 56 48 46 41 49 69 71 68 69 68 68 71
136 121 109 58 72 65 82 106 104 154 137 141 154 145 109 94 96 97 98 84 88 89 55 70 70 75 76 72 41 38 39 54 53 45 39 49 53 64
153 134 119 66 58 64 89 109 147 158 166 147 147 123 104 113 112 107 103 106 103 96 86 78 82 84 87 95 78 50 49 70 75 73 76 62 81 77
153 112 95 78 57 86 89 112 142 177 159 156 145 130 121 124 118 104 100 108 109 91 78 77 90 102 98 93 82 72 80 92 105 90 92 84 81 76
135 172 155 110 80 131 136 170 190 175 166 154 152 138 148 123 95 89 92 80 91 94 88 90 97 101 101 77 86 87 104 98 94 82 80 78 75 72
238 234 201 178 173 173 186 206 185 188 173 165 187 173 127 107 104 100 97 117 106 105 106 91 82 88 89 99 82 77 72 76 81 86 82 70 67 68
314 292 233 209 185 183 201 198 188 183 205 196 187 146 120 104 115 115 122 130 122 122 134 116 111 83 63 50 58 75 78 85 88 93 77 64 60 59
287 274 252 240 208 198 198 214 216 186 198 175 152 134 133 119 110 130 126 130 136 150 124 112 98 70 67 78 84 41 90 105 107 90 81 77 82 86
261 247 249 227 214 180 184 201 212 211 207 169 147 137 136 129 145 135 132 136 167 154 124 116 88 81 102 107 123 104 53 100 102 95 90 82 77 50
202 204 188 205 207 205 206 210 216 218 198 167 163 168 130 134 135 137 140 124 144 152 114 86 85 73 162 143 119 92 91 57 82 117 106 89 78 78
164 177 188 204 215 218 218 195 217 187 188 171 166 166 132 126 139 154 155 155 156 143 112 125 170 190 158 130 108 94 99 97 77 65 60 69 104 99
167 181 217 227 207 203 198 196 174 179 162 168 157 151 147 136 140 153 159 159 153 131 145 165 166 149 129 117 93 96 92 87 85 88 94 67 42 34

GFSNE_con_3kmhel_090.txt.gz
Helicity
76 92 62 58 78 119 143 169 171 119 99 100 179 212 193 162 159 155 156 177 183 194 191 188 182 160 155 130 122 143 142 152 126 100 90 89 77 118
146 140 157 168 161 149 124 128 128 119 114 108 186 215 192 163 150 149 146 155 178 182 184 176 178 153 179 170 158 141 146 131 111 94 67 59 71 82
200 174 162 139 125 112 119 130 128 143 130 169 203 215 196 168 145 147 134 136 147 149 168 164 155 155 169 159 163 135 131 129 85 89 64 66 87 116
166 168 132 128 128 131 145 143 148 155 170 152 182 190 184 167 129 117 127 135 140 134 146 130 132 149 137 136 111 87 93 106 99 102 88 76 101 216
179 168 157 176 167 172 160 149 143 148 156 167 201 202 187 172 163 149 138 141 147 149 162 153 142 138 121 110 60 88 96 92 83 73 75 73 84 208
195 197 183 185 183 176 180 175 175 164 172 176 171 185 177 164 177 171 167 154 148 148 143 148 143 121 99 48 67 78 70 56 54 49 53 55 52 120
222 208 198 199 199 194 186 166 172 169 174 160 157 174 185 170 154 157 157 162 138 144 139 134 120 105 92 62 68 56 42 35 40 34 30 47 41 65
218 204 215 212 210 215 246 252 186 189 178 177 185 192 175 161 173 175 186 178 152 139 152 120 109 101 84 80 54 33 20 30 22 30 29 58 59 61
202 205 207 202 186 197 209 220 206 193 160 146 149 145 140 147 196 182 167 171 149 131 135 119 101 82 85 61 39 23 29 36 39 35 41 66 81 85
216 214 212 188 180 192 193 186 175 153 138 131 120 106 117 139 165 157 160 166 167 133 105 111 71 54 49 32 24 23 38 43 54 52 67 85 96 103
231 222 213 197 147 127 167 147 140 141 147 133 134 153 137 122 150 188 176 194 152 102 71 89 52 60 50 42 36 31 48 51 40 53 71 91 97 99
199 183 134 163 111 90 146 132 139 127 133 145 154 146 159 149 139 123 136 142 138 112 49 90 68 74 73 48 40 51 52 37 49 57 79 83 89 79
178 163 157 99 86 63 93 136 119 135 111 128 136 153 160 144 161 146 104 107 129 85 26 72 73 81 74 58 48 39 37 30 35 41 45 53 47 57
166 164 156 94 84 65 80 85 92 131 170 147 145 136 140 150 145 125 119 100 103 51 67 89 81 81 98 87 72 54 41 31 37 41 50 57 71 70
175 164 129 96 76 81 84 82 117 192 183 172 139 138 133 167 179 149 145 130 110 97 93 88 67 78 88 107 103 84 69 56 78 94 96 83 83 88
135 138 124 140 133 127 132 134 200 180 191 166 162 166 218 223 174 136 118 102 122 117 102 80 86 101 113 101 103 85 76 70 101 96 82 73 66 63
215 208 235 234 201 206 189 204 219 179 182 195 202 212 202 200 173 125 116 102 102 93 90 91 94 94 83 88 97 69 78 75 76 68 76 71 64 57
241 251 218 245 234 214 224 214 216 174 201 208 220 231 216 204 174 139 131 124 102 107 118 121 140 136 105 67 64 65 64 57 69 75 79 74 70 61
183 228 250 251 225 236 231 226 218 198 221 226 244 232 253 212 145 148 124 122 106 115 139 147 149 148 105 57 67 39 70 82 111 110 91 85 76 72
117 198 233 235 238 254 241 219 216 225 225 247 243 233 221 207 195 139 116 114 123 134 151 173 150 107 88 52 72 79 71 107 111 95 89 80 70 52
116 173 205 222 239 245 244 252 208 213 217 244 240 232 218 211 190 146 136 91 110 139 129 125 109 96 123 123 119 116 99 49 87 105 87 82 66 62
126 161 194 231 251 243 242 226 193 190 225 237 231 229 211 201 202 180 142 122 113 125 127 139 154 184 148 127 109 120 120 104 58 38 54 76 91 65
107 128 154 211 247 217 210 209 188 194 204 207 202 209 218 215 201 164 130 136 144 160 161 166 183 171 129 134 118 116 113 101 105 100 93 44 29 21

GFSNE_con_3kmhel_093.txt.gz
Helicity
191 199 242 289 269 174 75 60 53 -0 64 124 158 174 176 153 134 134 132 148 162 175 177 177 169 162 154 164 159 145 123 130 127 83 90 60 45 58
112 123 141 148 65 56 75 85 125 124 108 154 168 190 180 194 163 148 137 146 143 157 170 162 164 153 154 155 149 159 138 140 115 82 82 61 44 45
90 53 87 138 162 146 182 191 140 149 163 193 198 202 215 202 169 143 116 125 119 124 143 126 151 161 156 157 150 149 136 115 69 85 74 67 65 69
138 144 137 157 136 162 157 128 133 152 174 180 215 222 208 172 158 121 109 126 125 120 124 127 144 149 151 150 152 127 102 88 94 87 77 92 90 100
170 150 167 148 140 157 133 127 146 172 179 199 215 233 216 216 178 139 116 118 130 131 130 133 141 145 135 142 141 94 59 80 82 71 55 68 75 105
177 164 157 164 174 195 188 156 178 192 215 219 208 211 200 188 182 153 130 133 122 130 123 127 133 139 138 132 117 56 69 59 74 45 26 44 49 80
142 137 143 156 179 206 217 194 209 220 226 216 225 241 226 216 169 127 127 138 125 128 137 130 131 127 119 111 81 52 53 41 40 26 18 29 37 43
177 163 178 189 193 183 168 193 204 236 231 250 242 215 199 171 154 150 168 166 145 144 155 133 138 125 110 97 65 54 24 26 18 23 29 26 48 28
194 216 217 209 207 230 213 210 185 178 219 239 221 193 181 145 165 167 168 168 153 146 162 145 138 120 84 69 44 32 21 21 21 39 43 49 60 58
184 190 207 214 210 232 257 261 262 255 231 210 178 143 142 128 147 154 165 177 185 166 145 131 99 84 67 37 14 23 20 23 29 40 62 74 100 98
180 192 192 175 146 153 231 243 241 237 213 181 154 130 103 111 143 205 206 215 172 138 125 121 92 89 52 39 32 25 39 37 34 36 54 74 86 92
188 204 150 179 139 135 223 226 216 212 234 233 195 166 146 118 110 153 177 179 156 144 85 127 105 74 66 56 56 56 55 35 43 46 63 72 73 66
190 190 182 108 110 109 138 178 178 190 162 181 176 179 174 166 165 139 130 144 157 113 66 111 94 94 75 54 54 35 39 39 37 37 40 41 61 66
172 169 150 93 108 106 121 102 107 149 211 202 198 184 173 151 141 158 161 140 115 86 70 91 59 99 111 84 61 53 49 38 35 33 28 36 66 72
144 124 90 83 94 128 97 95 94 187 195 196 183 170 154 154 202 210 211 176 156 143 123 93 71 109 92 64 76 81 92 63 60 64 67 66 72 92
116 116 91 95 116 154 153 149 191 201 195 179 168 180 207 219 199 184 176 178 161 143 126 79 95 100 75 85 93 94 83 78 80 78 92 95 87 80
114 159 140 164 176 181 189 206 239 221 194 197 219 212 204 207 193 186 190 200 151 143 116 113 124 98 89 92 92 83 88 90 87 92 94 83 71 61
94 145 142 185 159 189 186 205 229 197 196 209 227 232 216 211 215 195 203 192 171 138 126 117 143 148 127 82 59 85 92 84 73 65 76 71 67 72
54 108 128 193 217 225 213 218 221 229 238 235 234 236 220 220 194 202 185 217 177 149 139 145 168 163 148 115 101 48 95 76 84 83 85 98 93 91
79 67 122 156 203 205 246 253 239 246 242 213 202 233 243 216 216 189 191 189 176 169 167 166 166 151 142 103 81 66 65 87 91 102 105 100 81 59
112 95 99 150 199 214 230 225 244 240 228 233 204 225 242 233 210 181 177 150 167 186 158 136 130 126 169 131 103 83 89 46 85 112 102 105 95 96
97 104 118 131 164 188 239 248 240 222 220 228 218 201 224 239 194 179 173 178 170 167 149 195 220 207 157 120 91 94 100 109 67 62 80 91 98 80
84 97 107 139 171 195 212 217 210 212 222 221 232 211 214 201 180 183 183 190 211 216 205 216 204 195 150 117 94 97 103 115 115 117 100 49 44 39

GFSNE_con_3kmhel_096.txt.gz
Helicity
183 221 219 248 310 356 362 342 354 384 211 251 114 140 156 144 121 121 120 139 153 168 177 171 155 144 136 121 122 135 123 117 93 78 71 81 85 59
194 119 152 234 228 214 198 156 225 388 452 247 131 156 159 161 136 141 125 131 122 131 146 153 139 131 138 146 146 146 141 126 113 83 76 61 73 75
116 101 107 137 125 93 69 47 39 89 75 109 148 176 186 185 181 174 156 133 134 130 103 127 145 141 146 157 159 141 154 127 112 88 67 64 74 85
151 137 111 129 100 116 115 101 162 182 193 192 208 186 188 181 186 176 152 128 115 101 94 102 134 135 143 142 145 142 138 119 101 79 84 84 85 88
120 159 136 161 126 143 144 197 207 228 197 196 196 228 245 239 240 204 167 135 115 110 111 103 109 103 109 145 160 147 148 109 77 75 77 73 74 76
166 168 159 204 149 183 247 201 240 179 188 227 245 260 244 236 249 226 187 153 122 129 112 114 125 131 113 139 138 129 120 81 74 67 60 42 47 61
132 155 175 169 158 191 227 217 227 237 271 278 283 290 276 288 256 200 181 165 131 137 129 122 137 152 142 132 119 99 70 60 73 55 32 29 47 60
126 122 120 123 131 126 143 188 214 268 268 294 293 261 247 254 269 245 221 192 153 137 153 124 148 131 133 137 107 77 60 66 54 40 28 46 57 65
157 173 158 147 146 173 175 170 194 196 256 240 237 251 223 240 236 237 236 203 155 142 159 138 149 144 140 118 88 58 46 41 41 30 37 54 68 78
153 167 201 192 183 193 233 226 199 202 209 190 186 221 200 193 216 209 182 196 202 178 178 153 149 151 123 96 57 31 26 28 34 35 45 69 86 84
157 155 164 202 185 187 228 209 240 257 239 214 174 163 151 160 209 271 252 236 202 161 166 157 135 143 111 70 42 22 23 27 40 52 53 64 76 85
195 176 138 162 158 171 234 240 243 233 256 288 259 214 185 166 127 179 217 212 222 168 137 163 154 132 119 69 61 50 63 59 63 67 55 75 65 58
173 187 177 116 112 128 161 195 159 220 207 248 255 253 235 208 197 166 161 211 195 172 119 182 141 146 118 96 68 59 54 70 86 70 71 67 48 62
196 174 162 116 111 113 146 145 154 180 287 266 246 232 220 201 186 172 160 166 162 157 146 143 118 131 134 107 74 64 62 55 62 58 60 44 48 65
107 129 128 77 54 105 112 122 120 238 262 277 239 213 202 188 223 248 242 226 220 204 196 138 117 101 106 89 92 100 100 59 78 76 78 62 55 64
113 92 110 81 41 82 159 183 219 241 234 232 234 211 234 252 243 227 216 218 218 197 186 135 114 131 118 86 98 102 91 111 110 90 80 73 72 83
170 85 107 140 119 116 194 228 236 225 215 219 240 253 244 234 220 229 225 228 191 179 170 154 136 127 106 110 100 93 98 120 89 92 103 92 94 79
167 85 94 113 111 127 182 194 203 190 205 229 238 255 262 241 236 237 232 214 182 161 179 154 175 194 157 115 87 119 129 113 99 112 111 88 74 69
91 95 103 108 131 130 138 184 207 236 241 228 237 244 251 258 218 248 231 220 202 170 158 177 189 191 178 126 163 83 141 118 124 118 90 76 73 81
76 82 104 126 117 169 153 165 172 229 242 239 196 203 184 188 239 245 233 220 215 202 178 182 166 163 142 149 171 142 80 141 117 105 93 90 71 70
62 93 67 105 131 153 159 225 196 206 237 228 204 236 249 240 230 266 249 176 193 222 211 175 103 121 191 203 201 172 141 67 87 109 103 108 102 101
27 65 90 78 129 128 153 157 167 196 249 255 215 237 218 208 200 196 206 203 181 180 194 195 174 197 190 167 177 160 142 113 79 92 77 83 100 105
43 51 79 104 83 107 141 153 180 175 197 208 209 210 214 204 184 190 211 218 226 229 272 266 210 210 165 179 157 137 126 119 126 113 92 48 52 56

GFSNE_con_3kmhel_099.txt.gz
Helicity
91 105 128 109 137 156 233 240 299 324 450 500 562 500 492 338 155 139 123 139 161 165 181 180 163 154 142 133 131 124 127 115 98 79 82 78 85 81
127 109 133 175 167 178 242 278 354 369 407 532 513 455 259 194 140 138 137 136 118 120 130 143 155 152 137 129 132 137 127 131 111 98 92 93 83 74
126 169 219 222 177 181 169 291 264 232 312 348 399 210 259 172 179 152 154 154 145 124 123 116 114 136 132 127 145 157 151 132 109 95 94 86 71 73
131 142 155 144 145 151 152 145 181 114 153 177 205 214 188 180 183 178 153 149 124 112 110 111 100 107 124 111 131 141 127 118 107 95 81 57 63 75
72 93 72 120 114 160 136 123 106 136 153 173 221 222 252 217 249 211 187 170 116 108 98 93 100 100 117 130 132 135 125 123 116 90 81 71 58 64
89 95 105 129 145 163 182 159 187 190 240 327 392 314 299 295 257 244 237 192 154 144 113 110 109 113 105 97 121 125 116 120 106 91 86 67 48 53
85 98 119 135 141 147 198 162 247 286 315 308 373 393 272 293 236 270 230 180 125 157 135 128 140 140 128 148 157 113 105 94 82 95 85 57 47 47
107 111 114 117 128 131 153 178 206 251 275 364 307 242 253 316 318 274 239 203 157 124 150 126 140 119 142 171 141 117 99 93 98 94 69 52 45 43
146 122 112 129 134 145 127 145 165 166 195 325 327 310 310 259 252 270 267 267 195 131 159 130 148 128 149 148 114 108 91 90 97 83 50 45 67 69
142 153 147 134 135 151 169 185 206 198 225 233 286 292 286 225 205 226 206 216 257 195 175 155 162 144 173 156 128 95 83 77 78 65 47 61 63 81
146 145 151 152 145 124 168 189 219 254 227 180 216 143 328 139 265 331 302 285 252 206 153 169 160 173 166 144 111 91 77 61 60 55 39 38 63 72
115 106 141 143 150 112 161 192 209 249 259 284 233 258 210 172 151 231 295 275 301 215 157 203 194 182 152 132 124 115 104 68 58 57 57 71 73 68
109 113 110 98 124 140 114 190 190 203 221 250 285 276 266 254 250 251 223 272 271 219 135 246 199 213 185 144 133 117 104 104 121 93 79 80 69 59
150 135 103 91 83 89 98 126 134 139 234 293 301 292 305 305 260 255 247 248 224 161 145 197 156 195 204 188 132 100 105 100 101 77 61 64 59 53
171 176 179 115 92 83 48 95 103 209 221 239 210 234 285 280 305 336 317 273 256 243 228 183 176 167 158 142 124 113 134 71 75 81 71 71 53 54
126 111 170 169 77 98 64 83 199 225 265 232 233 269 296 304 310 301 292 273 272 243 239 207 172 166 166 133 133 130 126 138 106 89 91 82 67 68
122 98 89 100 88 115 138 79 182 234 243 236 279 289 281 285 287 273 267 277 261 241 226 202 191 176 141 125 158 129 141 146 115 123 106 91 79 77
79 89 97 91 100 77 111 121 146 213 252 220 217 239 279 260 270 271 261 251 247 219 220 211 225 248 199 156 116 136 163 136 125 103 105 111 103 104
41 61 74 73 98 93 95 145 135 154 249 253 206 213 260 244 243 251 242 224 224 211 214 219 230 245 238 166 141 98 157 151 159 131 103 111 106 114
29 30 57 65 88 105 88 140 206 194 200 242 275 239 231 233 237 221 223 229 196 210 210 213 193 201 183 159 167 160 109 160 150 132 114 120 108 108
17 24 33 58 86 85 118 142 145 244 202 211 195 220 248 230 225 227 209 153 183 209 184 169 134 129 209 231 255 227 184 130 114 134 125 129 117 114
13 15 17 40 65 64 78 121 147 123 158 216 173 205 224 244 242 223 217 210 204 195 197 220 243 243 249 216 240 240 223 177 111 98 104 106 100 91
0 12 19 36 41 38 33 63 100 117 135 167 213 194 201 219 210 196 207 194 220 248 278 254 255 253 224 221 249 250 227 195 167 132 103 77 91 99

GFSNE_con_3kmhel_102.txt.gz
Helicity
117 137 137 138 137 157 167 192 181 115 111 166 299 373 478 511 530 551 428 305 237 170 230 179 206 190 163 143 133 136 136 119 98 95 93 71 69 61
223 169 166 99 134 135 151 173 161 149 139 273 349 409 508 669 669 571 385 255 193 148 168 168 171 154 142 133 135 127 125 124 113 109 93 77 66 52
198 219 190 173 45 166 169 132 158 219 206 242 566 532 622 569 546 413 284 206 144 101 118 122 118 114 125 142 139 136 122 133 125 110 97 85 53 50
-9 10 96 168 125 165 205 208 221 160 228 343 402 322 320 399 331 222 216 169 139 113 107 116 104 96 111 130 150 133 135 126 122 106 89 91 54 51
54 76 76 121 114 127 128 153 209 208 204 276 269 240 250 170 205 249 203 205 164 115 110 100 95 88 88 125 130 133 122 127 128 117 103 86 57 60
60 57 57 44 102 143 118 154 174 222 208 243 235 254 241 219 275 297 267 253 223 167 131 115 112 91 81 90 115 117 115 112 107 100 88 73 64 57
87 73 85 115 119 96 112 128 143 184 256 252 296 343 397 492 431 379 316 286 212 199 174 173 179 164 137 117 141 120 126 115 104 92 84 89 63 53
87 104 111 98 106 133 125 136 128 182 194 245 355 408 328 305 337 540 411 348 229 165 194 162 180 169 146 140 120 120 113 99 93 91 94 83 66 65
110 105 92 115 126 107 117 122 107 131 173 231 210 292 354 444 507 387 355 320 271 183 212 162 174 147 150 135 107 112 103 98 89 90 96 73 77 72
123 123 114 93 102 126 123 119 125 136 159 201 210 207 260 387 474 428 248 301 266 226 185 172 157 137 168 155 107 115 103 93 76 93 93 88 59 72
158 138 130 111 102 92 97 121 131 151 189 149 190 210 264 197 288 462 414 313 322 210 170 179 171 196 182 160 160 115 88 79 81 92 81 63 51 60
121 174 179 205 168 138 108 99 119 128 174 227 233 201 150 181 230 221 398 274 328 219 170 272 235 205 183 173 158 147 126 84 79 88 68 54 57 72
68 99 145 203 238 224 176 129 122 114 120 187 249 288 285 251 264 248 279 208 324 213 113 340 285 262 240 130 180 148 131 137 113 79 59 64 84 81
107 121 143 193 220 207 176 131 91 120 178 193 209 263 305 313 291 276 342 279 211 199 156 255 210 244 278 208 148 159 155 132 122 110 83 79 96 90
120 118 150 136 105 108 128 118 129 173 187 214 236 244 321 326 354 384 387 385 388 346 271 219 210 215 204 177 175 161 196 97 94 108 89 78 77 74
72 84 90 111 81 68 113 90 118 168 156 138 199 227 271 300 388 420 437 403 400 342 353 268 206 228 210 181 175 191 138 127 107 95 104 87 76 71
54 50 56 65 81 57 66 67 86 100 146 129 224 271 244 266 332 335 320 320 336 314 305 286 271 228 187 165 201 166 151 137 115 156 136 111 80 78
34 21 28 42 50 67 73 123 61 81 134 170 191 201 200 279 309 347 369 303 331 291 284 275 258 287 247 187 153 187 170 165 164 163 152 131 104 83
19 14 13 12 32 48 67 122 107 111 177 208 132 131 186 232 276 291 311 314 319 308 250 241 232 263 245 179 193 129 186 191 211 178 145 131 112 94
7 -3 -3 12 20 23 42 84 79 103 168 207 215 200 188 228 257 277 257 255 303 318 261 217 195 211 173 155 157 159 134 200 175 187 171 159 150 149
-11 -15 4 4 7 15 36 62 111 111 127 204 200 197 157 204 237 227 253 185 244 265 251 205 156 144 182 196 196 193 208 183 177 198 177 183 166 136
-27 -17 -4 -5 10 17 36 31 61 105 42 83 148 185 216 169 181 204 236 227 218 221 227 275 247 225 235 188 200 207 216 241 207 150 160 137 132 109
-25 -13 -5 -10 5 11 18 30 25 51 48 22 48 114 152 148 150 178 214 220 260 249 242 279 255 252 214 207 218 240 235 234 237 208 199 146 152 154

GFSNE_con_3kmhel_105.txt.gz
Helicity
199 232 243 248 215 193 200 199 167 149 171 141 132 133 192 257 277 346 428 349 372 424 431 458 399 342 198 184 162 155 152 123 105 96 87 63 58 61
293 251 321 288 313 269 188 211 205 196 224 190 151 191 189 275 286 379 477 494 498 534 477 364 366 209 153 149 148 152 126 98 98 100 77 62 70 63
38 117 248 271 296 313 200 148 143 136 135 122 207 223 266 261 395 464 517 626 546 471 366 289 197 135 129 143 145 128 111 103 89 84 72 73 69 69
95 112 72 73 166 198 244 280 220 137 6 116 322 277 256 270 358 444 652 640 505 358 289 270 160 135 109 127 132 117 116 95 88 80 89 86 73 66
30 17 43 84 50 99 142 168 162 131 184 242 347 289 332 328 381 439 434 404 350 264 210 167 107 68 83 100 105 115 119 103 83 83 80 79 75 64
72 66 78 67 53 42 94 79 155 170 171 216 280 309 281 288 282 305 271 274 287 258 206 150 88 66 70 78 82 107 101 88 82 75 68 83 66 56
117 107 97 105 111 110 103 105 113 84 193 208 270 319 350 328 240 231 211 264 292 264 235 169 153 127 118 86 103 110 96 80 69 74 62 70 61 62
104 129 139 133 135 137 120 108 141 155 149 201 268 278 327 313 329 378 394 442 353 325 257 190 184 168 163 180 139 111 92 83 77 69 61 65 74 67
92 112 113 102 142 155 163 132 116 110 131 168 212 249 247 308 407 453 512 440 323 478 453 290 236 162 165 169 115 99 92 83 76 65 67 75 77 85
119 144 139 134 137 169 160 159 156 136 125 129 139 143 197 227 308 386 458 434 598 507 440 389 277 172 177 161 113 109 100 82 72 62 83 108 93 72
87 134 152 146 157 190 185 167 133 164 152 145 105 129 123 189 268 378 446 563 574 506 361 375 301 241 209 154 146 90 95 89 78 69 86 96 82 58
7 49 96 141 239 252 261 208 178 128 123 195 177 137 125 190 213 272 420 405 554 594 518 575 423 338 301 159 167 185 162 98 86 71 87 65 60 55
78 62 68 154 202 223 255 252 238 177 170 127 155 187 187 214 256 265 302 362 467 471 362 500 355 239 220 142 244 219 194 164 120 90 76 58 51 61
96 84 84 114 178 191 180 143 139 166 171 200 185 160 166 220 256 290 286 274 349 367 275 437 282 281 256 179 108 217 205 170 140 120 121 80 67 79
68 58 80 97 110 130 114 94 75 73 85 134 193 199 175 165 256 373 437 418 475 369 238 244 175 257 316 257 230 198 233 138 131 135 115 77 96 100
59 72 57 55 65 58 86 59 52 84 88 91 118 131 178 224 264 364 412 482 467 532 582 332 261 285 311 241 229 194 196 184 148 124 91 84 90 73
45 62 50 47 55 62 71 60 60 68 121 102 127 146 168 173 257 283 335 336 448 442 397 273 336 339 313 235 255 184 205 209 131 137 114 90 62 69
66 68 50 44 39 37 43 38 50 106 109 110 100 140 153 163 205 254 267 309 324 401 427 435 445 475 391 290 228 208 210 205 140 133 133 99 82 80
83 57 61 43 36 32 17 9 35 62 121 116 117 157 159 179 171 203 261 238 270 304 344 385 344 329 311 295 254 186 219 203 162 161 134 124 119 90
75 54 50 46 33 24 11 1 44 47 102 103 122 141 163 208 171 179 220 299 288 334 290 290 259 203 213 225 233 187 153 200 168 172 190 193 178 140
59 53 41 26 9 5 -7 -0 31 51 48 98 86 91 155 204 169 146 173 220 245 279 253 242 238 173 216 250 229 224 213 171 190 189 206 207 176 151
58 51 19 -26 -27 -22 -16 -4 10 30 2 80 73 52 56 94 124 152 163 185 207 231 252 261 303 293 311 224 216 205 241 225 203 189 235 209 155 130
50 35 -22 -40 -38 -30 -19 -10 4 22 49 40 33 -1 36 47 77 122 145 152 209 271 275 278 321 282 282 257 235 236 220 223 260 251 246 184 163 156

GFSNE_con_3kmhel_108.txt.gz
Helicity
130 115 166 164 292 399 413 485 379 335 204 141 30 27 157 205 193 217 219 131 158 148 214 225 253 327 359 400 309 285 201 177 122 94 70 56 48 42
118 84 106 179 262 282 247 202 247 218 172 157 197 62 80 159 162 226 205 189 166 226 255 339 418 466 492 474 325 276 159 136 101 66 62 62 56 49
89 130 110 82 74 279 263 212 225 246 228 208 233 213 198 187 232 204 235 286 282 323 395 521 476 470 425 388 295 223 115 111 88 57 66 67 57 53
70 79 85 145 94 101 80 220 327 283 232 189 203 263 247 227 199 233 217 308 311 373 491 525 492 381 343 325 315 181 82 97 90 79 79 63 57 61
51 49 45 21 19 32 69 99 58 137 139 159 149 380 344 279 287 228 332 331 376 450 507 411 378 335 326 282 237 114 86 101 93 88 78 65 68 58
100 86 85 93 81 70 49 35 40 75 126 115 138 275 219 198 208 251 301 373 436 445 412 348 301 284 238 178 107 55 105 97 95 82 72 74 72 68
87 98 102 127 126 124 96 88 95 83 95 117 179 239 258 213 261 269 244 336 407 419 373 342 345 302 231 82 45 97 99 84 85 79 76 63 68 58
105 101 95 108 130 154 166 174 146 126 133 96 146 94 103 184 250 289 339 359 307 250 289 318 309 252 186 117 68 93 86 89 86 90 75 80 80 61
105 109 112 113 113 120 155 186 196 202 170 145 138 156 154 172 219 328 362 350 284 341 349 307 327 242 221 197 116 100 72 87 91 80 77 85 77 66
82 97 119 141 144 168 158 160 164 185 212 196 186 158 138 171 179 213 272 299 452 420 329 445 396 339 382 275 117 97 86 86 88 90 82 71 76 84
-25 40 62 69 143 210 205 191 191 189 196 220 224 183 187 169 158 227 252 353 438 455 461 500 476 503 481 419 236 84 92 93 91 86 74 73 80 91
28 23 -10 41 94 102 91 106 123 176 176 184 223 227 214 199 157 187 246 326 285 340 414 465 498 561 427 345 276 176 141 90 97 95 73 79 79 90
100 97 81 85 88 123 156 113 80 95 147 171 151 155 218 233 218 173 172 309 246 363 369 553 635 652 573 414 459 254 221 189 179 135 79 84 73 76
92 98 97 100 112 113 112 129 162 164 128 121 151 151 140 212 214 214 177 221 225 197 296 388 518 668 736 638 507 459 391 256 182 169 165 121 82 72
71 63 35 41 50 66 71 86 105 110 151 141 171 205 134 118 147 184 286 347 272 345 252 295 439 567 545 453 489 296 390 288 234 223 218 188 138 117
73 70 54 31 38 50 61 55 69 78 102 149 123 144 102 121 165 187 229 315 359 347 434 388 401 377 532 429 328 203 181 175 231 216 213 182 136 124
60 61 66 62 65 61 60 64 64 72 75 93 85 115 77 70 111 95 142 162 270 350 431 428 456 441 394 476 293 147 203 268 183 257 231 195 151 135
74 74 70 68 60 58 56 56 52 45 45 42 101 113 122 97 88 90 108 191 175 284 393 423 428 502 547 511 364 189 233 290 224 261 195 209 176 135
88 87 83 70 61 57 60 59 47 40 48 66 67 80 64 88 50 126 152 197 230 262 281 358 371 479 442 459 404 298 276 272 262 215 208 195 197 143
88 83 75 62 55 52 50 48 43 27 25 42 41 66 63 84 24 95 104 150 206 255 289 310 277 328 330 384 387 304 276 265 231 207 273 266 245 170
73 73 61 58 55 46 33 29 3 -4 7 4 -14 65 67 72 64 88 99 89 153 227 194 204 268 336 425 381 314 271 258 215 185 219 272 259 245 223
65 62 59 58 55 22 -20 -33 -34 -23 -13 -10 -12 37 61 37 49 22 45 93 93 143 219 255 311 322 301 276 301 335 241 219 205 185 262 258 230 200
53 51 49 48 -17 -32 -38 -30 -25 -17 -5 8 18 28 59 22 17 31 30 48 96 120 198 222 233 229 256 278 251 299 226 209 248 258 294 254 201 172

GFSNE_con_3kmhel_111.txt.gz
Helicity
192 206 200 99 146 179 231 245 264 203 243 255 300 405 294 247 71 136 164 133 121 119 166 85 108 86 92 140 155 188 270 290 262 236 102 75 66 62
179 213 190 171 182 153 125 191 222 284 273 365 321 332 326 262 136 50 162 132 117 131 145 151 195 119 135 159 275 311 303 388 326 205 74 58 55 66
143 123 140 182 170 155 105 94 125 295 280 156 181 242 267 272 251 138 88 121 174 132 107 166 189 190 174 276 402 377 394 382 264 182 69 55 49 60
52 117 89 71 101 91 89 147 -13 135 70 112 154 291 285 252 287 238 228 219 210 167 124 140 120 172 260 435 479 394 419 326 222 155 60 59 55 62
61 67 59 67 50 18 23 52 40 35 -41 27 94 113 148 255 237 234 235 195 207 145 160 157 103 184 338 472 464 404 392 327 234 196 37 72 68 73
74 72 74 85 80 60 61 62 41 9 -4 19 51 62 106 146 151 192 177 215 206 220 166 132 168 314 427 422 402 347 329 257 234 126 57 93 94 75
91 110 99 101 89 56 43 73 67 51 48 22 24 32 78 86 155 159 151 168 201 219 235 272 361 406 410 336 324 303 286 250 166 60 78 97 89 75
93 109 112 112 135 162 140 111 89 101 110 102 93 107 108 86 105 138 155 215 171 170 270 317 354 344 377 371 312 334 228 179 102 75 95 100 95 80
83 93 105 115 121 131 174 197 179 182 173 140 136 158 165 155 122 112 136 206 145 184 276 301 343 309 295 297 267 253 209 123 103 96 103 103 88 79
51 62 81 106 119 150 146 146 135 128 159 183 187 165 184 199 200 216 155 156 212 198 186 309 357 313 325 280 242 218 153 115 107 100 111 117 99 79
-52 -32 -14 28 82 126 104 108 133 136 102 146 195 238 237 228 196 192 190 203 204 221 216 315 363 393 371 358 283 223 195 151 100 77 94 118 105 97
48 45 45 33 26 -2 16 24 17 42 109 128 108 97 130 151 177 190 215 245 220 225 216 257 358 464 416 416 464 356 288 203 124 60 72 79 100 170
73 76 84 88 81 72 65 42 45 49 24 -7 44 124 107 80 138 160 187 228 266 243 161 246 324 467 483 291 513 444 407 385 345 220 79 101 119 125
86 95 99 94 94 91 85 72 85 75 42 32 11 7 60 117 107 147 171 202 172 208 204 169 282 332 421 445 349 414 442 446 462 350 254 130 101 85
106 87 67 83 93 95 68 85 89 36 26 36 50 63 42 59 91 112 125 187 223 214 184 256 226 245 322 411 504 455 599 561 521 471 319 267 234 216
73 94 73 55 43 40 52 68 58 51 49 50 48 53 56 75 64 93 117 110 204 216 209 202 242 285 215 307 391 520 456 641 600 485 405 288 249 209
89 95 83 82 79 68 62 50 54 55 49 51 50 47 45 51 83 75 104 118 155 171 176 213 217 332 363 352 380 363 533 608 490 590 508 337 235 197
85 78 77 83 84 72 58 56 56 45 55 55 53 48 57 78 70 39 89 132 130 129 131 244 300 408 388 389 435 396 487 476 471 393 345 378 262 208
94 91 95 98 89 74 64 60 59 54 54 63 54 54 53 56 44 25 30 76 80 107 104 171 264 306 312 253 423 413 438 456 396 328 319 276 267 222
119 112 98 93 89 68 59 59 56 50 58 37 46 44 21 12 -26 35 37 73 61 106 139 208 197 304 357 391 473 514 278 347 275 278 304 350 239 176
103 109 105 92 77 67 66 63 52 41 32 24 22 18 17 2 14 20 29 63 21 80 159 227 186 197 389 454 501 507 428 328 330 327 361 359 354 346
91 90 81 70 57 57 54 51 29 -1 -6 -14 -10 -2 11 1 17 19 24 32 -29 24 105 174 203 227 242 269 326 382 359 313 272 354 276 278 290 266
82 80 67 60 52 44 -1 -50 -44 -22 -13 -17 -12 4 7 -11 8 22 20 10 2 31 109 126 155 227 210 255 266 311 323 329 377 374 307 190 203 115

GFSNE_con_3kmhel_114.txt.gz
Helicity
151 187 166 145 184 201 175 197 105 203 194 176 186 167 184 256 278 383 249 153 61 81 126 110 143 172 150 133 110 69 76 100 101 239 267 248 163 98
135 148 137 167 164 152 218 178 152 149 87 85 133 170 214 275 327 325 262 229 216 128 101 119 80 127 149 142 71 50 109 130 241 249 283 240 169 122
112 139 127 91 108 92 80 90 112 131 162 117 134 99 163 176 175 204 275 248 218 188 100 86 69 108 131 110 115 104 125 196 304 303 304 269 151 130
113 129 175 193 135 128 144 124 113 105 101 156 184 62 189 187 221 201 253 219 255 189 182 73 103 160 158 121 139 85 148 238 340 391 390 251 198 112
81 63 70 67 78 48 54 42 21 37 14 52 56 79 71 83 41 126 131 178 191 131 113 107 134 141 174 126 96 153 216 307 456 441 305 230 191 115
82 80 95 80 64 79 47 40 39 60 61 60 31 11 5 -12 64 108 127 95 141 163 112 113 111 110 103 105 121 170 278 368 544 397 258 278 202 152
66 67 83 96 108 117 83 87 60 51 56 62 63 52 67 62 63 22 87 117 109 112 128 101 96 96 86 77 135 269 385 576 380 295 279 243 207 176
78 72 63 75 94 125 139 171 129 84 78 85 66 66 75 106 112 128 111 115 64 22 82 119 141 135 160 169 250 373 398 348 301 283 238 182 190 138
73 78 90 82 82 73 93 114 121 146 122 92 97 124 129 135 117 89 101 122 130 131 71 130 126 163 233 277 262 259 245 275 262 229 180 162 139 89
70 78 85 93 94 100 85 74 71 74 94 103 100 85 80 100 123 113 128 101 98 101 132 121 130 189 216 247 221 250 252 260 237 224 176 131 109 95
31 19 21 15 26 55 54 57 65 98 100 89 75 83 114 135 126 119 133 147 170 122 94 181 142 177 249 250 221 222 248 239 207 188 157 127 117 108
5 13 8 13 27 32 14 -2 18 47 53 99 152 155 113 108 134 130 142 147 144 139 150 160 195 208 180 204 291 225 240 219 226 208 186 166 131 170
35 34 44 21 45 53 47 42 13 4 12 30 38 62 123 120 120 158 165 171 189 208 192 195 205 250 244 184 191 269 269 278 257 249 195 183 162 184
58 56 75 48 38 60 83 66 56 64 43 24 29 44 42 64 100 99 103 117 145 150 175 238 221 239 289 224 189 210 276 345 365 379 346 244 160 147
89 93 100 88 70 74 57 56 69 72 52 40 31 35 28 32 41 39 74 102 103 113 143 150 227 236 229 248 196 243 254 348 419 393 421 393 330 314
74 108 79 59 57 52 58 61 59 54 46 41 41 41 30 15 21 33 38 68 116 119 75 142 176 206 207 209 230 263 268 321 394 408 426 404 407 379
70 78 78 80 75 68 76 74 58 46 38 41 47 48 44 31 37 50 59 65 81 90 122 116 170 217 221 182 250 245 241 356 298 472 522 467 449 391
74 72 68 80 75 82 80 66 59 47 50 43 38 46 43 33 33 47 58 62 74 77 88 93 141 213 263 217 181 205 201 232 345 341 415 478 507 411
75 76 102 95 79 71 63 57 48 50 46 47 44 59 36 31 25 27 33 62 73 39 49 70 130 149 198 221 186 295 215 267 365 353 407 466 512 464
94 97 92 98 101 87 65 50 26 29 32 34 67 60 37 31 29 35 59 20 28 33 33 48 89 118 159 152 100 266 238 308 336 339 463 517 458 383
89 93 95 101 94 72 53 37 29 29 34 42 39 42 39 40 39 50 54 61 21 39 11 32 109 78 184 179 195 240 339 262 252 383 490 532 543 465
92 85 82 88 91 82 66 57 48 40 39 32 22 -10 22 14 32 32 34 55 21 26 6 37 110 144 192 170 174 301 360 353 346 384 532 587 560 407
120 116 104 101 89 67 42 32 26 25 22 13 -2 3 1 -4 3 10 32 23 6 5 -18 -14 111 132 120 202 282 339 381 416 385 427 441 257 218 229

GFSNE_con_3kmhel_120.txt.gz
Helicity
127 139 151 159 158 150 142 154 125 83 137 153 175 197 171 130 136 110 97 90 56 83 126 109 123 115 146 135 134 110 62 98 120 117 147 167 111 141
118 130 130 142 142 153 128 145 134 97 111 171 147 124 103 67 81 105 117 131 87 54 67 153 216 158 132 119 129 89 112 123 99 105 115 106 115 148
114 114 119 128 108 119 107 110 132 110 72 108 81 122 177 142 125 76 120 65 106 175 109 125 159 97 59 68 99 148 165 109 109 124 141 165 172 141
123 119 133 120 102 129 116 141 110 115 55 62 15 46 110 122 73 51 52 102 117 166 246 179 132 88 64 98 79 176 188 147 193 198 159 118 160 166
89 96 97 114 116 102 88 112 84 89 84 80 53 63 95 173 169 115 108 202 150 180 181 151 165 166 100 109 122 161 185 181 165 178 140 149 161 159
130 112 99 101 94 92 97 102 94 78 93 85 75 47 47 76 94 77 85 86 65 133 116 164 204 327 261 219 133 137 174 168 187 218 142 109 130 146
112 115 111 123 122 109 90 79 91 84 72 74 46 31 53 68 37 29 -11 -21 22 4 1 48 90 136 184 189 170 169 115 107 122 156 137 112 129 228
85 100 109 123 120 100 73 85 87 63 70 55 53 53 64 61 34 19 -30 -48 -108 49 46 9 17 29 87 105 183 159 128 131 92 94 96 99 144 224
79 88 101 116 126 116 71 74 81 68 54 50 53 61 58 77 57 45 44 27 43 78 76 -53 70 29 31 -14 64 125 136 111 88 75 79 84 99 222
75 85 89 97 103 104 79 76 66 68 71 64 49 55 45 48 26 16 32 26 34 48 66 -41 35 60 123 80 81 109 156 154 118 70 43 65 168 343
90 90 87 85 96 121 108 80 69 76 72 58 56 51 58 77 70 39 36 3 -11 20 100 15 1 19 36 87 113 196 196 145 131 148 149 254 421 615
76 73 76 65 62 66 67 66 57 55 69 85 93 87 85 74 76 43 13 7 8 -72 56 1 34 -28 -74 31 110 199 222 244 181 209 214 265 260 252
52 40 40 35 42 53 73 87 63 60 46 58 51 62 73 69 77 75 59 46 38 23 64 29 28 88 30 -33 51 106 165 285 296 263 230 200 289 325
49 57 60 22 32 47 70 73 82 89 86 71 69 56 46 46 59 69 68 72 58 35 73 69 12 53 89 74 17 69 97 146 225 287 334 231 247 285
85 62 41 44 43 70 71 62 72 83 74 72 63 72 61 41 34 36 55 45 46 50 40 53 63 52 53 76 67 122 108 121 129 239 310 389 321 292
78 94 64 65 72 72 76 86 97 94 86 81 90 99 75 52 30 31 22 34 28 61 41 59 74 70 78 60 62 92 144 109 187 170 219 320 370 377
64 101 97 102 107 107 103 100 113 115 104 108 105 80 55 44 34 25 17 22 13 37 81 59 71 86 93 77 81 70 105 127 100 154 195 271 293 315
103 111 101 114 109 113 101 99 94 81 86 82 85 79 66 57 44 32 38 44 30 19 29 56 65 98 90 73 16 59 83 106 113 86 160 217 213 269
96 92 102 105 109 115 121 113 96 95 97 105 95 89 89 84 52 56 45 47 37 32 30 40 57 63 93 105 90 -18 74 86 112 132 114 184 181 224
97 89 98 100 106 112 115 115 101 90 85 82 93 120 99 79 55 47 42 41 37 44 68 68 80 89 80 65 61 85 29 100 116 124 126 145 220 117
99 99 105 114 124 127 128 132 132 123 101 94 106 90 75 124 80 58 50 15 18 33 34 53 86 40 59 45 36 34 51 57 67 102 122 169 194 268
102 108 116 126 148 160 162 154 144 128 119 118 107 102 85 82 65 57 75 63 45 43 32 32 56 77 74 57 55 36 39 65 48 28 74 194 266 278
111 114 121 130 146 155 146 150 158 151 128 112 104 96 85 65 45 27 37 2 7 1 -6 27 16 17 55 83 37 34 26 36 64 71 90 94 187 136

GFSNE_con_3kmhel_123.txt.gz
Helicity
162 222 115 74 79 93 82 69 97 94 135 204 175 169 128 135 172 170 159 169 171 134 131 119 97 92 115 107 106 97 95 117 165 118 94 94 138 146
80 115 66 65 91 121 125 125 149 132 128 150 154 87 78 25 28 116 105 112 122 138 154 173 157 125 103 102 100 153 146 123 156 157 117 89 89 128
127 122 127 115 105 109 111 125 145 162 166 172 143 124 108 99 102 107 72 106 133 180 195 227 174 155 165 131 152 120 147 142 175 138 120 102 94 120
98 105 113 104 92 92 104 127 108 133 116 107 108 91 78 119 138 122 99 87 97 165 268 172 176 170 195 181 157 90 112 122 137 171 106 152 174 135
76 75 78 95 102 102 96 107 110 109 90 48 45 70 63 55 104 111 136 124 101 155 151 141 187 188 239 283 246 232 184 140 141 138 153 196 191 207
63 73 79 77 80 84 79 88 101 107 92 51 14 14 20 37 16 23 55 50 77 166 166 250 305 268 257 206 226 284 287 204 195 142 175 219 246 209
65 58 60 73 89 70 48 51 53 45 42 35 41 48 48 50 43 54 23 48 73 43 71 87 137 141 114 139 150 235 317 342 322 214 189 229 219 230
65 76 80 89 99 107 92 43 57 50 49 29 26 26 53 45 35 30 15 10 -11 22 -2 53 53 88 143 104 103 148 255 294 394 316 232 226 202 212
63 60 68 67 73 71 81 80 47 52 48 37 41 44 36 38 32 27 26 9 28 85 -2 17 64 72 130 96 190 87 105 179 202 228 213 172 100 104
96 75 59 68 79 85 75 69 64 63 62 72 56 56 54 53 28 7 20 -11 -3 37 15 -94 37 47 80 154 214 161 147 81 101 168 196 109 81 72
106 108 100 88 87 96 77 66 64 53 59 52 48 36 25 25 41 22 9 -20 -46 -11 25 -86 -63 -39 22 78 91 224 269 297 202 115 157 122 62 20
89 74 75 69 58 65 67 66 62 53 67 90 108 98 71 64 54 39 -11 -32 -37 -100 15 -75 -35 -129 -194 3 95 128 141 262 285 286 215 205 189 159
68 62 58 44 50 62 72 91 76 72 86 83 67 78 83 76 68 57 28 -9 -31 -36 28 -37 -58 31 -72 -103 17 132 105 132 158 212 314 321 208 273
61 67 75 44 54 63 75 65 76 86 107 82 65 65 73 79 70 44 24 24 16 -11 15 29 -47 1 9 -13 -48 71 122 115 122 154 216 317 301 296
96 80 54 63 61 80 69 48 64 102 108 110 91 80 86 74 65 47 33 11 -1 17 15 29 9 -4 -0 -3 -2 37 96 105 137 170 184 257 311 306
86 105 84 84 73 63 69 84 108 121 133 138 140 126 103 87 79 59 33 17 -4 19 13 17 16 5 17 11 1 18 77 71 129 167 168 180 253 273
86 113 111 104 96 83 80 85 93 107 121 151 153 142 119 86 55 47 45 25 20 24 39 22 16 11 7 3 17 13 64 89 112 132 160 176 162 162
118 117 114 121 111 87 69 71 85 77 101 116 121 135 131 125 84 59 46 39 29 27 34 35 13 11 19 25 -30 20 30 68 102 100 110 180 194 151
123 120 121 114 109 103 94 85 81 85 92 116 114 129 122 122 90 85 58 47 23 24 31 30 35 34 27 33 49 9 14 48 86 83 78 111 152 175
112 116 125 120 112 113 120 120 109 105 123 123 125 127 135 119 102 107 81 56 41 32 29 52 57 48 34 41 57 59 7 18 38 74 75 69 125 152
99 108 120 125 123 119 129 139 140 136 124 136 155 162 154 155 111 112 102 51 21 37 32 39 57 24 58 56 23 31 43 -22 -7 48 63 92 105 143
103 111 126 134 128 132 123 128 136 134 133 140 151 157 156 155 129 112 110 103 94 90 44 28 35 58 53 31 27 22 31 24 17 13 32 68 112 118
104 111 113 120 127 129 138 148 154 152 157 166 177 174 165 161 142 127 110 95 78 74 46 28 21 19 39 49 19 31 28 47 39 64 66 43 50 38

GFSNE_con_3kmhel_126.txt.gz
Helicity
75 102 83 78 94 138 92 148 169 35 44 140 137 190 173 166 184 180 221 225 213 214 174 161 122 117 125 110 100 105 98 92 81 66 76 138 154 132
25 41 50 41 50 61 71 88 86 61 73 83 92 79 63 79 94 77 108 109 142 196 165 158 142 116 125 165 163 125 86 87 100 97 84 109 107 159
54 54 64 60 37 50 43 59 68 85 94 72 53 37 54 72 69 88 70 75 46 207 236 227 152 185 189 206 199 188 167 126 127 139 122 99 104 159
85 73 67 76 85 84 73 72 68 65 47 55 50 61 59 78 94 72 94 76 92 147 220 202 226 183 229 250 246 234 244 227 194 128 110 113 108 130
49 54 60 70 79 71 71 83 77 73 60 36 18 23 30 20 34 28 46 54 114 177 174 254 265 248 233 191 224 229 252 277 300 273 180 89 98 128
63 62 53 51 52 49 32 42 50 50 35 20 16 26 21 34 6 -9 62 49 133 123 141 188 189 227 222 222 183 147 184 227 288 344 325 280 121 108
52 63 72 81 85 69 53 36 40 36 26 23 20 14 22 35 35 30 16 32 102 14 99 149 170 144 164 197 228 290 271 229 226 261 321 342 305 166
76 75 70 67 80 106 90 84 34 29 25 22 16 11 22 19 8 5 -7 -14 -13 52 39 166 83 165 147 166 244 296 268 204 171 185 225 292 285 205
69 68 73 74 75 74 81 94 78 60 25 26 19 18 5 4 5 21 14 -18 1 91 -9 14 26 77 129 228 261 245 211 250 274 229 180 218 251 260
77 73 76 75 73 73 72 70 68 59 53 52 36 30 40 37 16 5 -0 -15 3 30 -24 -102 -17 8 107 187 199 194 245 254 222 221 130 168 218 213
80 79 76 68 53 58 71 65 60 58 74 71 64 74 63 58 57 45 23 -4 -45 -29 -28 -89 -54 -45 -2 103 73 189 220 224 213 242 199 187 202 198
90 76 47 45 35 46 73 85 81 86 98 100 99 91 82 75 69 52 16 -11 -34 -64 -14 -44 -19 -84 -180 -22 95 113 128 168 198 214 212 158 209 101
88 66 72 34 37 55 69 98 97 88 88 96 87 74 74 72 74 75 58 47 8 -24 3 -25 -57 13 -61 -84 -17 120 140 139 155 160 160 196 273 264
61 67 77 36 49 70 90 86 78 77 91 62 55 58 68 71 82 91 93 77 49 9 4 10 -18 -23 -17 -2 -34 59 126 163 124 190 147 143 223 278
67 58 40 60 68 92 75 60 73 113 98 78 71 69 77 68 75 90 100 96 85 65 29 22 23 -0 -22 -36 3 44 62 138 176 139 134 161 176 186
68 88 85 85 69 70 81 84 99 104 106 95 76 72 73 74 75 81 81 76 88 63 33 19 24 5 -0 -12 -38 24 75 69 165 203 185 199 183 168
57 111 110 84 89 105 106 102 99 102 98 101 91 74 67 73 72 83 89 85 78 63 55 48 37 26 12 -8 -5 -4 62 67 111 149 157 194 203 171
97 108 95 97 102 103 104 97 97 85 106 108 112 116 104 94 79 73 78 72 71 76 65 61 35 33 16 -8 -51 27 36 56 80 95 90 153 216 183
106 108 114 107 109 123 129 122 114 119 118 134 140 145 148 129 85 94 89 79 79 83 75 63 51 38 15 22 21 4 16 44 49 75 95 102 174 215
106 117 115 111 129 141 138 124 104 95 101 111 126 140 164 161 136 120 116 100 98 90 81 93 116 92 34 23 23 11 27 37 58 66 70 69 93 140
104 117 113 112 126 129 121 120 116 107 92 117 154 164 173 183 169 147 130 71 66 90 85 102 123 60 78 35 13 23 61 55 57 64 36 27 89 113
100 100 89 100 114 105 113 128 134 133 139 161 172 169 164 180 174 161 152 129 103 97 107 93 61 76 57 31 7 20 37 46 46 27 15 -13 46 89
92 90 80 87 84 103 130 138 148 163 175 188 209 203 180 166 164 158 134 123 113 96 79 57 33 31 62 47 -2 12 15 34 39 11 -4 8 5 12

GFSNE_con_3kmhel_129.txt.gz
Helicity
53 47 48 54 62 52 61 61 35 50 109 88 178 191 -68 -68 127 174 230 304 179 197 209 212 203 180 217 197 159 141 112 106 106 100 74 81 79 115
29 26 27 41 67 78 81 74 78 78 87 73 62 32 42 -41 -10 -8 63 98 147 192 181 176 184 212 197 178 151 123 142 146 137 116 92 78 73 52
45 50 50 52 44 40 56 74 102 120 95 78 63 42 -19 -33 -34 -56 -50 14 92 137 153 185 206 182 155 159 157 139 142 178 205 210 194 150 110 83
42 38 45 42 50 58 53 60 57 52 51 73 80 86 66 95 70 66 65 61 78 121 130 181 184 193 185 196 199 175 151 187 196 227 244 218 195 141
61 59 52 47 53 57 58 66 66 59 51 28 24 37 21 51 68 63 62 101 81 97 131 175 162 162 157 166 191 192 224 235 221 208 216 225 209 197
44 44 56 67 71 59 57 63 69 73 73 75 60 35 2 16 3 29 75 91 113 73 131 172 186 187 184 188 190 206 234 250 213 204 231 240 240 210
53 57 57 55 64 74 73 67 46 58 60 62 56 63 71 65 56 38 34 66 106 49 139 147 152 135 144 182 202 244 259 274 206 207 231 242 207 189
62 67 69 68 69 69 81 86 87 68 56 68 67 49 34 28 17 27 31 29 29 28 35 145 89 116 131 157 216 211 210 204 214 288 296 249 242 248
72 67 73 85 95 86 75 71 69 69 72 76 65 53 55 30 27 30 16 16 25 54 1 65 30 92 117 149 179 164 183 213 220 235 225 250 273 265
76 77 82 86 89 70 58 61 53 50 58 73 65 50 44 34 26 8 20 22 15 27 -14 -22 -1 29 81 117 113 113 180 218 188 193 194 183 197 198
84 84 79 73 52 37 41 39 48 63 79 74 71 55 57 69 73 68 35 10 6 16 15 -33 -23 11 21 77 68 117 226 170 181 166 206 198 197 190
85 90 70 38 26 25 55 59 62 65 68 75 87 84 79 68 58 80 73 57 41 21 13 -7 22 -26 -86 -11 88 110 112 143 158 164 177 173 203 114
81 76 54 27 26 38 59 88 70 52 53 92 82 78 76 71 74 83 77 71 73 69 35 30 14 24 -39 -49 17 97 99 120 145 149 155 163 163 208
85 58 42 22 25 46 71 59 46 53 94 83 77 67 64 67 69 75 78 81 88 60 33 47 47 23 11 12 14 49 85 109 90 137 145 137 191 195
84 37 9 32 41 80 61 60 75 97 89 81 72 67 65 62 56 57 61 60 63 62 53 38 49 33 38 27 -8 59 10 77 120 102 135 157 136 141
64 47 48 53 67 69 75 89 99 99 87 72 62 62 66 68 63 63 56 53 51 50 55 48 48 59 54 39 23 15 33 -13 99 116 116 146 145 145
44 59 75 72 72 76 82 95 104 103 100 90 86 85 81 80 75 76 75 65 59 43 42 46 51 64 69 46 30 27 47 30 31 79 95 141 163 164
49 73 65 67 76 68 76 81 82 63 64 62 64 73 84 94 90 78 79 87 69 49 46 48 44 48 58 52 20 30 24 24 23 27 55 91 194 180
62 62 71 75 71 67 75 76 64 71 80 91 107 115 114 109 90 99 100 102 97 74 68 55 56 48 37 39 49 20 27 18 5 31 50 95 146 229
52 62 66 71 67 65 70 69 76 89 100 114 125 133 149 141 116 112 118 130 109 85 72 77 90 95 88 59 24 38 18 39 26 30 47 49 85 165
56 64 67 70 67 67 71 78 80 90 96 122 145 149 161 167 158 118 117 98 102 115 105 104 114 62 90 67 68 49 67 37 29 41 45 35 96 102
54 60 64 70 66 66 71 74 84 96 116 141 150 154 159 164 178 144 109 102 65 58 63 44 13 15 33 76 73 50 66 56 43 17 -9 -8 67 67
53 55 58 63 62 66 73 81 92 110 126 139 146 154 153 158 134 140 128 80 68 63 48 35 2 8 49 50 24 9 23 58 54 28 -4 -31 -14 16